M I D A S
Marine Information and Data Acquisition System
Tripno 2238 of the Zeeleeuw from 2011-09-09 06:38:40 to 2011-09-09 13:12:56
Back to CruiseResearch ActivitiesStationsMapUnderway DataData graphs

EquipmentUnitsComment
TimeDGPSUTC
LatitudeDGPSDM.mWGS84
LongitudeDGPSDM.mWGS84
TemperatureSBE03/SBE38deg celciusITS90
ConductivitySBE21S/mITS90
SalinitySBE21 Practical Salinity Units
ChlorophylAChelsea fluorimeterg/lCalibrated in Aceton
Missing or incorrect values are displayed as -999
Sea surface data collected by the RV Zeeleeuw from 2011-09-09 06:28:33 to 2011-09-09 13:12:09
                                                                                    Next 1000 lines
Time Latitude Longitude Temperature Conductivity Salinity ChlorophylA
2011-09-09 06:28:44 51°13.635 2°56.019 19.3478 0.008886 0.0508 -3.020363
2011-09-09 06:28:49 51°13.635 2°56.019 19.3474 0.008886 0.0508 -3.020363
2011-09-09 06:28:53 51°13.635 2°56.019 19.3463 0.008886 0.0508 -3.020363
2011-09-09 06:28:58 51°13.635 2°56.019 19.3423 0.008886 0.0508 -3.020363
2011-09-09 06:29:04 51°13.635 2°56.018 19.3389 0.008886 0.0508 -3.020363
2011-09-09 06:29:09 51°13.635 2°56.017 19.3352 0.008886 0.0508 -3.020363
2011-09-09 06:29:13 51°13.635 2°56.015 19.3344 0.008886 0.0508 -3.020363
2011-09-09 06:29:19 51°13.636 2°56.011 19.3316 0.008886 0.0508 -3.020363
2011-09-09 06:29:24 51°13.637 2°56.007 19.3339 0.008886 0.0508 -3.020363
2011-09-09 06:29:29 51°13.638 2°56.001 19.3342 0.008886 0.0508 -3.020363
2011-09-09 06:29:35 51°13.64 2°55.993 19.3353 0.008886 0.0508 -3.020363
2011-09-09 06:29:41 51°13.643 2°55.984 19.3364 0.008886 0.0508 -3.020363
2011-09-09 06:29:46 51°13.645 2°55.976 19.3383 0.008886 0.0508 -3.020363
2011-09-09 06:29:52 51°13.647 2°55.965 19.34 0.008886 0.0508 -3.020363
2011-09-09 06:29:57 51°13.65 2°55.957 19.342 0.008886 0.0508 -3.020363
2011-09-09 06:30:02 51°13.652 2°55.948 19.3444 0.008886 0.0508 -3.020363
2011-09-09 06:30:07 51°13.654 2°55.939 19.3457 0.008886 0.0508 -3.020363
2011-09-09 06:30:12 51°13.656 2°55.93 19.347 0.008886 0.0508 -3.020363
2011-09-09 06:30:17 51°13.659 2°55.921 19.3488 0.008886 0.0508 -3.020363
2011-09-09 06:30:22 51°13.661 2°55.912 19.3501 0.008886 0.050799 -3.020363
2011-09-09 06:30:27 51°13.664 2°55.904 19.3524 0.008886 0.0508 -3.020363
2011-09-09 06:30:32 51°13.667 2°55.895 19.3536 0.008886 0.0508 -3.020363
2011-09-09 06:30:37 51°13.669 2°55.886 19.3534 0.008886 0.050799 -3.020363
2011-09-09 06:30:42 51°13.672 2°55.877 19.3572 0.008886 0.050799 -3.020363
2011-09-09 06:30:47 51°13.676 2°55.868 19.3561 0.008886 0.0508 -3.020363
2011-09-09 06:30:52 51°13.679 2°55.859 19.3578 0.008886 0.0508 -3.020363
2011-09-09 06:30:57 51°13.683 2°55.85 19.3584 0.008886 0.0508 -3.020363
2011-09-09 06:31:02 51°13.687 2°55.841 19.3604 0.008886 0.050799 -3.020363
2011-09-09 06:31:07 51°13.691 2°55.832 19.3612 0.008886 0.050799 -3.020363
2011-09-09 06:31:12 51°13.695 2°55.823 19.363 0.008886 0.050799 -3.020363
2011-09-09 06:31:17 51°13.699 2°55.814 19.3647 0.008886 0.050799 -3.020363
2011-09-09 06:31:22 51°13.704 2°55.805 19.3649 0.008886 0.050799 -3.020363
2011-09-09 06:31:27 51°13.709 2°55.797 19.3652 0.008886 0.0508 -3.020363
2011-09-09 06:31:32 51°13.713 2°55.788 19.3669 0.008886 0.050799 -3.020363
2011-09-09 06:31:37 51°13.719 2°55.779 19.3673 0.008886 0.050799 -3.020363
2011-09-09 06:31:42 51°13.724 2°55.771 19.3701 0.008886 0.050799 -3.020363
2011-09-09 06:31:47 51°13.729 2°55.762 19.3702 0.008886 0.050799 -3.020363
2011-09-09 06:31:52 51°13.734 2°55.754 19.3705 0.008886 0.050799 -3.020363
2011-09-09 06:31:57 51°13.74 2°55.745 19.3701 0.008886 0.050799 -3.020363
2011-09-09 06:32:02 51°13.745 2°55.737 19.3691 0.008886 0.050799 -3.020363
2011-09-09 06:32:07 51°13.751 2°55.728 19.3685 0.008886 0.050799 -3.020363
2011-09-09 06:32:12 51°13.757 2°55.72 19.3662 0.008886 0.050799 -3.020363
2011-09-09 06:32:17 51°13.762 2°55.711 19.3666 0.008886 0.050799 -3.020363
2011-09-09 06:32:22 51°13.768 2°55.703 19.3682 0.008886 0.050799 -3.020363
2011-09-09 06:32:27 51°13.774 2°55.695 19.3694 0.008886 0.050799 -3.020363
2011-09-09 06:32:32 51°13.78 2°55.687 19.3701 0.008886 0.050799 -3.020363
2011-09-09 06:32:37 51°13.786 2°55.679 19.3716 0.008886 0.050799 -3.020363
2011-09-09 06:32:42 51°13.792 2°55.67 19.3755 0.008886 0.050799 -3.020363
2011-09-09 06:32:47 51°13.799 2°55.663 19.3768 0.008886 0.050799 -3.020363
2011-09-09 06:32:52 51°13.805 2°55.656 19.3791 0.008886 0.050799 -3.020363
2011-09-09 06:32:57 51°13.811 2°55.649 19.3797 0.008886 0.050799 -3.020363
2011-09-09 06:33:02 51°13.818 2°55.642 19.3813 0.008886 0.050799 -3.020363
2011-09-09 06:33:07 51°13.824 2°55.636 19.3806 0.008886 0.050799 -3.020363
2011-09-09 06:33:12 51°13.831 2°55.63 19.3821 0.008886 0.050799 -3.020363
2011-09-09 06:33:17 51°13.837 2°55.625 19.3826 0.008886 0.050799 -3.020363
2011-09-09 06:33:22 51°13.844 2°55.62 19.3838 0.008886 0.050799 -3.020363
2011-09-09 06:33:27 51°13.851 2°55.616 19.3853 0.008886 0.050799 -3.020363
2011-09-09 06:33:32 51°13.857 2°55.612 19.3871 0.008886 0.050799 -3.020363
2011-09-09 06:33:37 51°13.864 2°55.608 19.3884 0.008886 0.050799 -3.020363
2011-09-09 06:33:42 51°13.871 2°55.605 19.3888 0.008886 0.050799 -3.020363
2011-09-09 06:33:47 51°13.878 2°55.602 19.3903 0.008886 0.050799 -3.020363
2011-09-09 06:33:52 51°13.885 2°55.6 19.3916 0.008886 0.050799 -3.020363
2011-09-09 06:33:57 51°13.891 2°55.599 19.3922 0.008886 0.050799 -3.020363
2011-09-09 06:34:02 51°13.898 2°55.598 19.3919 0.008886 0.050799 -3.020363
2011-09-09 06:34:07 51°13.904 2°55.597 19.3941 0.008886 0.050799 -3.020363
2011-09-09 06:34:12 51°13.911 2°55.596 19.3967 0.008886 0.050799 -3.020363
2011-09-09 06:34:17 51°13.916 2°55.597 19.3984 0.008886 0.050799 -3.020363
2011-09-09 06:34:22 51°13.922 2°55.597 19.4005 0.008886 0.050799 -3.020363
2011-09-09 06:34:27 51°13.927 2°55.598 19.4004 0.008886 0.050799 -3.020363
2011-09-09 06:34:32 51°13.933 2°55.599 19.3961 0.008886 0.050799 -3.020363
2011-09-09 06:34:37 51°13.938 2°55.6 19.3919 0.008886 0.050798 -3.020363
2011-09-09 06:34:42 51°13.942 2°55.602 19.3924 0.008886 0.050798 -3.020363
2011-09-09 06:34:47 51°13.947 2°55.603 19.3966 0.008886 0.050799 -3.020363
2011-09-09 06:34:52 51°13.951 2°55.605 19.3989 0.008886 0.050799 -3.020363
2011-09-09 06:34:57 51°13.955 2°55.607 19.4006 0.008886 0.050798 -3.020363
2011-09-09 06:35:01 51°13.958 2°55.608 19.402 0.008886 0.050798 -3.020363
2011-09-09 06:35:06 51°13.962 2°55.61 19.4037 0.008886 0.050798 -3.020363
2011-09-09 06:35:11 51°13.966 2°55.612 19.4099 0.008886 0.050798 -3.020363
2011-09-09 06:35:16 51°13.968 2°55.614 19.4189 0.008886 0.050798 -3.020363
2011-09-09 06:35:21 51°13.971 2°55.616 19.4232 0.008886 0.050798 -3.020363
2011-09-09 06:35:25 51°13.972 2°55.617 19.4315 0.008886 0.050798 -3.020363
2011-09-09 06:35:30 51°13.974 2°55.617 19.4269 0.008886 0.050798 -3.020363
2011-09-09 06:35:35 51°13.974 2°55.617 19.4196 0.008886 0.050798 -3.020363
2011-09-09 06:35:40 51°13.975 2°55.616 19.43 0.008886 0.050798 -3.020363
2011-09-09 06:35:45 51°13.975 2°55.615 19.4236 0.008886 0.050798 -3.020363
2011-09-09 06:35:50 51°13.974 2°55.613 19.4215 0.008886 0.050797 -3.020363
2011-09-09 06:35:55 51°13.974 2°55.611 19.4228 0.008886 0.050797 -3.020363
2011-09-09 06:36:00 51°13.974 2°55.608 19.4233 0.008886 0.050797 -3.020363
2011-09-09 06:36:05 51°13.974 2°55.605 19.4125 0.008886 0.050797 -3.020363
2011-09-09 06:36:09 51°13.974 2°55.602 19.4007 0.008886 0.050797 -3.020363
2011-09-09 06:36:14 51°13.974 2°55.598 19.3973 0.008886 0.050797 -3.020363
2011-09-09 06:36:20 51°13.975 2°55.592 19.3978 0.008886 0.050797 -3.020363
2011-09-09 06:36:25 51°13.976 2°55.587 19.3925 0.008886 0.050797 -3.020363
2011-09-09 06:36:29 51°13.977 2°55.583 19.3878 0.008886 0.050797 -3.020363
2011-09-09 06:36:35 51°13.978 2°55.577 19.3866 0.008886 0.050797 -3.020363
2011-09-09 06:36:40 51°13.98 2°55.572 19.3834 0.008886 0.050797 -3.020363
2011-09-09 06:36:45 51°13.983 2°55.566 19.379 0.008886 0.050797 -3.020363
2011-09-09 06:36:49 51°13.985 2°55.562 19.3758 0.008886 0.050797 -3.020363
2011-09-09 06:36:54 51°13.988 2°55.557 19.3724 0.008886 0.050797 -3.020363
2011-09-09 06:36:59 51°13.992 2°55.553 19.3708 0.008886 0.050797 -3.020363
2011-09-09 06:37:04 51°13.995 2°55.548 19.374 0.008886 0.050797 -3.020363
2011-09-09 06:37:09 51°14 2°55.544 19.3847 0.008886 0.050797 -3.020363
2011-09-09 06:37:13 51°14.003 2°55.541 19.403 0.008886 0.050797 -3.020363
2011-09-09 06:37:19 51°14.009 2°55.536 19.4121 0.008886 0.050796 -3.020363
2011-09-09 06:37:24 51°14.014 2°55.532 19.4171 0.008886 0.050796 -3.020363
2011-09-09 06:37:29 51°14.019 2°55.527 19.4253 0.008886 0.050796 -3.020363
2011-09-09 06:37:34 51°14.024 2°55.523 19.4326 0.008886 0.050796 -3.020363
2011-09-09 06:37:39 51°14.03 2°55.518 19.4294 0.008886 0.050796 -3.020363
2011-09-09 06:37:44 51°14.036 2°55.513 19.4272 0.008886 0.050796 -3.020363
2011-09-09 06:37:49 51°14.042 2°55.509 19.4275 0.008886 0.050796 -3.020363
2011-09-09 06:37:53 51°14.046 2°55.505 19.4271 0.008886 0.050796 -3.020363
2011-09-09 06:37:58 51°14.053 2°55.5 19.4283 0.008886 0.050796 -3.020363
2011-09-09 06:38:04 51°14.061 2°55.494 19.4293 0.008886 0.050796 -3.020363
2011-09-09 06:38:09 51°14.067 2°55.489 19.4291 0.008886 0.050796 -3.020363
2011-09-09 06:38:14 51°14.073 2°55.483 19.4293 0.008886 0.050796 -3.020363
2011-09-09 06:38:19 51°14.08 2°55.478 19.4299 0.008886 0.050796 -3.020363
2011-09-09 06:38:24 51°14.086 2°55.472 19.4302 0.008886 0.050796 -3.020363
2011-09-09 06:38:29 51°14.093 2°55.467 19.4304 0.008886 0.050796 -3.020363
2011-09-09 06:38:34 51°14.1 2°55.461 19.4307 0.008886 0.050796 -3.020363
2011-09-09 06:38:39 51°14.107 2°55.455 19.4311 0.008886 0.050796 -3.020363
2011-09-09 06:38:44 51°14.114 2°55.449 19.4316 0.008886 0.050796 -3.020363
2011-09-09 06:38:49 51°14.122 2°55.444 19.4322 0.008886 0.050795 -3.020363
2011-09-09 06:38:54 51°14.13 2°55.438 19.4305 0.008886 0.050795 -3.020363
2011-09-09 06:38:59 51°14.137 2°55.431 19.4316 0.008886 0.050795 -3.020363
2011-09-09 06:39:04 51°14.145 2°55.425 19.4322 0.008886 0.050795 -3.020363
2011-09-09 06:39:09 51°14.152 2°55.419 19.4332 0.008886 0.050795 -3.020363
2011-09-09 06:39:13 51°14.158 2°55.413 19.4346 0.008886 0.050795 -3.020363
2011-09-09 06:39:19 51°14.167 2°55.405 19.4353 0.008886 0.050795 -3.020363
2011-09-09 06:39:24 51°14.175 2°55.398 19.4355 0.008886 0.050795 -3.020363
2011-09-09 06:39:29 51°14.183 2°55.39 19.4332 0.008886 0.050795 -3.020363
2011-09-09 06:39:34 51°14.192 2°55.383 19.434 0.008886 0.050794 -3.020363
2011-09-09 06:39:39 51°14.2 2°55.376 19.436 0.008886 0.050794 -3.020363
2011-09-09 06:39:44 51°14.208 2°55.368 19.4372 0.008886 0.050794 -3.020363
2011-09-09 06:39:49 51°14.217 2°55.36 19.4385 0.008886 0.050794 -3.020363
2011-09-09 06:39:53 51°14.224 2°55.354 19.4411 0.008886 0.050794 -3.020363
2011-09-09 06:39:59 51°14.235 2°55.344 19.4439 0.008886 0.050794 -3.020363
2011-09-09 06:40:04 51°14.244 2°55.336 19.4438 0.008886 0.050794 -3.020363
2011-09-09 06:40:09 51°14.252 2°55.328 19.4442 0.008886 0.050794 -3.020363
2011-09-09 06:40:14 51°14.261 2°55.319 19.4411 0.008886 0.050794 -3.020363
2011-09-09 06:40:19 51°14.27 2°55.311 19.4423 0.008886 0.050794 -3.020363
2011-09-09 06:40:24 51°14.279 2°55.303 19.4413 0.008886 0.050794 -3.020363
2011-09-09 06:40:29 51°14.288 2°55.294 19.4474 0.008886 0.050794 -3.020363
2011-09-09 06:40:34 51°14.297 2°55.286 19.4509 0.008886 0.050794 -3.020363
2011-09-09 06:40:39 51°14.307 2°55.277 19.444 0.008886 0.050794 -3.020363
2011-09-09 06:40:44 51°14.317 2°55.268 19.4452 0.008886 0.050794 -3.020363
2011-09-09 06:40:49 51°14.327 2°55.259 19.4514 0.008886 0.050794 -3.020363
2011-09-09 06:40:54 51°14.338 2°55.249 19.4517 0.008886 0.050794 -3.020363
2011-09-09 06:40:59 51°14.349 2°55.239 19.4514 0.008886 0.050794 -3.020363
2011-09-09 06:41:04 51°14.36 2°55.228 19.4538 0.008886 0.050794 -3.020363
2011-09-09 06:41:09 51°14.372 2°55.218 19.449 0.008886 0.050794 -3.020363
2011-09-09 06:41:13 51°14.381 2°55.209 19.4441 0.008886 0.050794 -3.020363
2011-09-09 06:41:19 51°14.395 2°55.195 19.4464 0.008886 0.050794 -3.020363
2011-09-09 06:41:24 51°14.407 2°55.183 19.4557 0.008886 0.050793 -3.020363
2011-09-09 06:41:29 51°14.419 2°55.171 19.4577 0.008886 0.050794 -3.020363
2011-09-09 06:41:33 51°14.429 2°55.161 19.4493 0.008886 0.050793 -3.020363
2011-09-09 06:41:39 51°14.443 2°55.146 19.453 0.008886 0.050793 -3.020363
2011-09-09 06:41:44 51°14.456 2°55.133 19.4665 0.008886 0.050793 -3.020363
2011-09-09 06:41:49 51°14.468 2°55.12 19.4695 0.008886 0.050793 -3.020363
2011-09-09 06:41:53 51°14.478 2°55.109 19.4762 0.008886 0.050793 -3.020363
2011-09-09 06:41:59 51°14.493 2°55.092 19.4652 0.008886 0.050793 -3.020363
2011-09-09 06:42:04 51°14.505 2°55.077 19.4703 0.008886 0.050793 -3.020363
2011-09-09 06:42:09 51°14.518 2°55.062 19.4785 0.008886 0.050793 -3.020363
2011-09-09 06:42:13 51°14.529 2°55.05 19.4617 0.008886 0.050793 -3.020363
2011-09-09 06:42:19 51°14.543 2°55.03 19.3585 0.008886 0.050793 -3.020363
2011-09-09 06:42:24 51°14.556 2°55.014 19.1418 0.008886 0.050793 -3.020363
2011-09-09 06:42:29 51°14.57 2°54.999 19.2892 0.008886 0.050793 -3.020363
2011-09-09 06:42:33 51°14.581 2°54.986 19.3854 0.008886 0.050793 -3.020363
2011-09-09 06:42:39 51°14.597 2°54.966 19.3308 0.008886 0.050793 -3.020363
2011-09-09 06:42:44 51°14.611 2°54.95 19.3591 0.008886 0.050793 -3.020363
2011-09-09 06:42:49 51°14.624 2°54.933 19.3233 0.008886 0.050793 -3.020363
2011-09-09 06:42:53 51°14.635 2°54.919 19.3689 0.008886 0.050793 -3.020363
2011-09-09 06:42:59 51°14.652 2°54.9 19.3463 0.008886 0.050793 -3.020363
2011-09-09 06:43:04 51°14.665 2°54.882 19.1873 0.008886 0.050793 -3.020363
2011-09-09 06:43:09 51°14.678 2°54.865 19.3137 0.008886 0.050793 -3.020363
2011-09-09 06:43:13 51°14.689 2°54.852 19.289 0.008886 0.050793 -3.020363
2011-09-09 06:43:19 51°14.706 2°54.832 19.2557 0.008886 0.050793 -3.020363
2011-09-09 06:43:24 51°14.72 2°54.814 19.2658 0.008886 0.050793 -3.020363
2011-09-09 06:43:29 51°14.733 2°54.796 19.2682 0.008886 0.050793 -3.020363
2011-09-09 06:43:33 51°14.744 2°54.782 19.2729 0.008886 0.050793 -3.020363
2011-09-09 06:43:39 51°14.76 2°54.761 19.2792 0.008886 0.050793 -3.020363
2011-09-09 06:43:44 51°14.773 2°54.743 19.2777 0.008886 0.050793 -3.020363
2011-09-09 06:43:49 51°14.786 2°54.726 19.2823 0.008886 0.050793 -3.020363
2011-09-09 06:43:53 51°14.798 2°54.713 19.2852 0.008886 0.050793 -3.020363
2011-09-09 06:43:59 51°14.814 2°54.692 19.2849 0.008886 0.050793 -3.020363
2011-09-09 06:44:04 51°14.827 2°54.676 19.2879 0.008886 0.050793 -3.020363
2011-09-09 06:44:09 51°14.842 2°54.661 19.2917 0.008886 0.050793 -3.020363
2011-09-09 06:44:13 51°14.853 2°54.648 19.2957 0.008886 0.050793 -3.020363
2011-09-09 06:44:18 51°14.867 2°54.632 19.2983 0.008886 0.050793 -3.020363
2011-09-09 06:44:24 51°14.884 2°54.612 19.3 0.008886 0.050793 -3.020363
2011-09-09 06:44:29 51°14.898 2°54.595 19.2981 0.008886 0.050793 -3.020363
2011-09-09 06:44:33 51°14.908 2°54.581 19.3046 0.008886 0.050793 -3.020363
2011-09-09 06:44:39 51°14.925 2°54.562 19.3042 0.008886 0.050793 -3.020363
2011-09-09 06:44:44 51°14.938 2°54.545 19.3059 0.008886 0.050793 -3.020363
2011-09-09 06:44:49 51°14.952 2°54.527 19.309 0.008886 0.050793 -3.020363
2011-09-09 06:44:53 51°14.963 2°54.514 19.3084 0.008886 0.050793 -3.020363
2011-09-09 06:44:59 51°14.978 2°54.493 19.3133 0.008886 0.050793 -3.020363
2011-09-09 06:45:04 51°14.992 2°54.476 19.3138 0.008886 0.050793 -3.020363
2011-09-09 06:45:09 51°15.005 2°54.458 19.3151 0.008886 0.050793 -3.020363
2011-09-09 06:45:14 51°15.018 2°54.441 19.3201 0.008886 0.050793 -3.020363
2011-09-09 06:45:19 51°15.031 2°54.423 19.3189 0.008886 0.050793 -3.020363
2011-09-09 06:45:23 51°15.041 2°54.409 19.319 0.008886 0.050792 -3.020363
2011-09-09 06:45:29 51°15.057 2°54.388 19.3148 0.008886 0.050792 -3.020363
2011-09-09 06:45:33 51°15.067 2°54.373 19.3204 0.008886 0.050793 -3.020363
2011-09-09 06:45:39 51°15.083 2°54.353 19.3264 0.008886 0.050793 -3.020363
2011-09-09 06:45:44 51°15.097 2°54.337 19.3264 0.008886 0.050792 -3.020363
2011-09-09 06:45:49 51°15.11 2°54.321 19.3316 0.008886 0.050793 -3.020363
2011-09-09 06:45:53 51°15.121 2°54.307 19.3304 0.008886 0.050793 -3.020363
2011-09-09 06:45:59 51°15.137 2°54.286 19.3322 0.008886 0.050793 -3.020363
2011-09-09 06:46:04 51°15.15 2°54.27 19.3318 0.008886 0.050792 -3.020363
2011-09-09 06:46:09 51°15.163 2°54.252 19.3383 0.008886 0.050792 -3.020363
2011-09-09 06:46:13 51°15.174 2°54.239 19.3307 0.008886 0.050792 -3.020363
2011-09-09 06:46:19 51°15.19 2°54.219 19.3366 0.008886 0.050792 -3.020363
2011-09-09 06:46:24 51°15.204 2°54.203 19.3411 0.008886 0.050792 -3.020363
2011-09-09 06:46:29 51°15.217 2°54.186 19.3416 0.008886 0.050792 -3.020363
2011-09-09 06:46:33 51°15.228 2°54.173 19.3437 0.008886 0.050792 -3.020363
2011-09-09 06:46:39 51°15.244 2°54.153 19.3436 0.008886 0.050792 -3.020363
2011-09-09 06:46:44 51°15.257 2°54.135 19.351 0.008886 0.050792 -3.020363
2011-09-09 06:46:49 51°15.271 2°54.119 19.3508 0.008886 0.050792 -3.020363
2011-09-09 06:46:53 51°15.282 2°54.105 19.3452 0.008886 0.050792 -3.020363
2011-09-09 06:46:58 51°15.295 2°54.088 19.3545 0.008886 0.050792 -3.020363
2011-09-09 06:47:03 51°15.309 2°54.071 19.3539 0.008886 0.050792 -3.020363
2011-09-09 06:47:09 51°15.325 2°54.051 19.356 0.008886 0.050792 -3.020363
2011-09-09 06:47:13 51°15.335 2°54.038 19.3536 0.008886 0.050792 -3.020363
2011-09-09 06:47:19 51°15.351 2°54.017 19.3624 0.008886 0.050792 -3.020363
2011-09-09 06:47:24 51°15.365 2°54 19.3577 0.008886 0.050792 -3.020363
2011-09-09 06:47:29 51°15.378 2°53.983 19.3582 0.008886 0.050792 -3.020363
2011-09-09 06:47:33 51°15.389 2°53.969 19.3575 0.008886 0.050793 -3.020363
2011-09-09 06:47:39 51°15.405 2°53.949 19.3667 0.008886 0.050793 -3.020363
2011-09-09 06:47:44 51°15.419 2°53.933 19.3597 0.008886 0.050792 -3.020363
2011-09-09 06:47:49 51°15.432 2°53.916 19.3636 0.008886 0.050792 -3.020363
2011-09-09 06:47:54 51°15.446 2°53.9 19.371 0.008886 0.050792 -3.020363
2011-09-09 06:47:59 51°15.46 2°53.884 19.3489 0.008886 0.050792 -3.020363
2011-09-09 06:48:04 51°15.474 2°53.868 19.3665 0.008886 0.050792 -3.020363
2011-09-09 06:48:09 51°15.488 2°53.852 19.3814 0.008886 0.050792 -3.020363
2011-09-09 06:48:13 51°15.499 2°53.838 19.3871 0.008886 0.050792 -3.020363
2011-09-09 06:48:19 51°15.516 2°53.819 19.3887 0.008886 0.050792 -3.020363
2011-09-09 06:48:24 51°15.529 2°53.802 19.3892 0.008886 0.050792 -3.020363
2011-09-09 06:48:29 51°15.542 2°53.785 19.3908 0.008886 0.050792 -3.020363
2011-09-09 06:48:33 51°15.553 2°53.772 19.3849 0.008886 0.050792 -3.020363
2011-09-09 06:48:39 51°15.57 2°53.752 19.3915 0.008886 0.050792 -3.020363
2011-09-09 06:48:44 51°15.583 2°53.735 19.3962 0.008886 0.050792 -3.020363
2011-09-09 06:48:49 51°15.597 2°53.719 19.3941 0.008886 0.050792 -3.020363
2011-09-09 06:48:53 51°15.608 2°53.706 19.3988 0.008886 0.050792 -3.020363
2011-09-09 06:48:59 51°15.624 2°53.687 19.3958 0.008886 0.050792 -3.020363
2011-09-09 06:49:04 51°15.637 2°53.67 19.4042 0.008886 0.050792 -3.020363
2011-09-09 06:49:09 51°15.652 2°53.655 19.4008 0.008886 0.050792 -3.020363
2011-09-09 06:49:13 51°15.663 2°53.641 19.403 0.008886 0.050792 -3.020363
2011-09-09 06:49:19 51°15.68 2°53.624 19.4062 0.008886 0.050792 -3.020363
2011-09-09 06:49:23 51°15.691 2°53.611 19.4065 0.008886 0.050792 -3.020363
2011-09-09 06:49:29 51°15.708 2°53.593 19.4076 0.008886 0.050792 -3.020363
2011-09-09 06:49:33 51°15.719 2°53.581 19.4127 0.008886 0.050792 -3.020363
2011-09-09 06:49:39 51°15.737 2°53.564 19.4171 0.008886 0.050792 -3.020363
2011-09-09 06:49:44 51°15.751 2°53.549 19.4158 0.008886 0.050792 -3.020363
2011-09-09 06:49:49 51°15.765 2°53.535 19.4212 0.008886 0.050791 -3.020363
2011-09-09 06:49:53 51°15.777 2°53.523 19.4228 0.008886 0.050792 -3.020363
2011-09-09 06:49:59 51°15.794 2°53.505 19.4211 0.008886 0.050791 -3.020363
2011-09-09 06:50:04 51°15.809 2°53.49 19.4183 0.008886 0.050792 -3.020363
2011-09-09 06:50:09 51°15.823 2°53.476 19.4254 0.008886 0.050792 -3.020363
2011-09-09 06:50:14 51°15.838 2°53.463 19.4229 0.008886 0.050792 -3.020363
2011-09-09 06:50:19 51°15.852 2°53.45 19.4236 0.008886 0.050792 -3.020363
2011-09-09 06:50:24 51°15.868 2°53.437 19.4227 0.008886 0.050791 -3.020363
2011-09-09 06:50:29 51°15.883 2°53.425 19.4305 0.008886 0.050792 -3.020363
2011-09-09 06:50:33 51°15.895 2°53.417 19.4345 0.008886 0.050791 -3.020363
2011-09-09 06:50:39 51°15.914 2°53.404 19.4373 0.008886 0.050791 -3.020363
2011-09-09 06:50:44 51°15.93 2°53.394 19.4365 0.008886 0.050791 -3.020363
2011-09-09 06:50:49 51°15.945 2°53.383 19.4411 0.008886 0.050792 -3.020363
2011-09-09 06:50:53 51°15.958 2°53.375 19.4433 0.008886 0.050791 -3.020363
2011-09-09 06:50:59 51°15.976 2°53.362 19.4455 0.008886 0.050791 -3.020363
2011-09-09 06:51:04 51°15.992 2°53.352 19.4494 0.008886 0.050791 -3.020363
2011-09-09 06:51:09 51°16.007 2°53.34 19.4539 0.008886 0.050791 -3.020363
2011-09-09 06:51:13 51°16.019 2°53.331 19.4513 0.008886 0.050792 -3.020363
2011-09-09 06:51:19 51°16.037 2°53.316 19.4518 0.008886 0.050791 -3.020363
2011-09-09 06:51:24 51°16.052 2°53.303 19.4577 0.008886 0.050792 -3.020363
2011-09-09 06:51:29 51°16.067 2°53.29 19.4525 0.008886 0.050792 -3.020363
2011-09-09 06:51:33 51°16.079 2°53.279 19.4603 0.008886 0.050791 -3.020363
2011-09-09 06:51:39 51°16.096 2°53.264 19.4612 0.008886 0.050791 -3.020363
2011-09-09 06:51:44 51°16.111 2°53.252 19.4614 0.008886 0.050791 -3.020363
2011-09-09 06:51:49 51°16.126 2°53.239 19.4662 0.008886 0.050791 -3.020363
2011-09-09 06:51:54 51°16.141 2°53.227 19.4668 0.008886 0.050792 -3.020363
2011-09-09 06:51:59 51°16.156 2°53.214 19.4721 0.008886 0.050792 -3.020363
2011-09-09 06:52:03 51°16.168 2°53.204 19.4724 0.008886 0.050792 -3.020363
2011-09-09 06:52:09 51°16.185 2°53.188 19.4727 0.008886 0.050792 -3.020363
2011-09-09 06:52:13 51°16.197 2°53.178 19.4713 0.008886 0.050792 -3.020363
2011-09-09 06:52:19 51°16.215 2°53.163 19.4716 0.008886 0.050791 -3.020363
2011-09-09 06:52:24 51°16.23 2°53.151 19.4774 0.008886 0.050791 -3.020363
2011-09-09 06:52:29 51°16.245 2°53.138 19.4785 0.008886 0.050792 -3.020363
2011-09-09 06:52:34 51°16.26 2°53.126 19.4786 0.008886 0.050791 -3.020363
2011-09-09 06:52:39 51°16.275 2°53.114 19.476 0.008886 0.050791 -3.020363
2011-09-09 06:52:44 51°16.29 2°53.103 19.4828 0.008886 0.050791 -3.020363
2011-09-09 06:52:49 51°16.305 2°53.092 19.4838 0.008886 0.050791 -3.020363
2011-09-09 06:52:54 51°16.321 2°53.082 19.4938 0.008886 0.050791 -3.020363
2011-09-09 06:52:59 51°16.337 2°53.072 19.4927 0.008886 0.050791 -3.020363
2011-09-09 06:53:04 51°16.353 2°53.062 19.4931 0.008886 0.050791 -3.020363
2011-09-09 06:53:09 51°16.368 2°53.052 19.4985 0.008886 0.050791 -3.020363
2011-09-09 06:53:13 51°16.38 2°53.044 19.4946 0.008886 0.050791 -3.020363
2011-09-09 06:53:19 51°16.399 2°53.033 19.4885 0.008886 0.050791 -3.020363
2011-09-09 06:53:24 51°16.415 2°53.024 19.5047 0.008886 0.050791 -3.020363
2011-09-09 06:53:29 51°16.431 2°53.014 19.4967 0.008886 0.050791 -3.020363
2011-09-09 06:53:33 51°16.443 2°53.006 19.4543 0.008886 0.050791 -3.020363
2011-09-09 06:53:38 51°16.459 2°52.997 19.5682 0.008886 0.050791 -3.020363
2011-09-09 06:53:44 51°16.478 2°52.985 19.5667 0.008886 0.050791 -3.020363
2011-09-09 06:53:49 51°16.493 2°52.975 19.5609 0.008886 0.050791 -3.020363
2011-09-09 06:53:53 51°16.506 2°52.967 19.5594 0.008886 0.050791 -3.020363
2011-09-09 06:53:59 51°16.525 2°52.956 19.5567 0.008886 0.050791 -3.020363
2011-09-09 06:54:04 51°16.54 2°52.946 19.5538 0.008886 0.050791 -3.020363
2011-09-09 06:54:09 51°16.556 2°52.936 19.5569 0.008886 0.050791 -3.020363
2011-09-09 06:54:13 51°16.568 2°52.927 19.5578 0.008886 0.050791 -3.020363
2011-09-09 06:54:19 51°16.586 2°52.914 19.5555 0.008886 0.050791 -3.020363
2011-09-09 06:54:24 51°16.602 2°52.903 19.5573 0.008886 0.050791 -3.020363
2011-09-09 06:54:29 51°16.617 2°52.891 19.55 0.008886 0.050791 -3.020363
2011-09-09 06:54:34 51°16.631 2°52.878 19.5491 0.008886 0.050791 -3.020363
2011-09-09 06:54:39 51°16.646 2°52.866 19.5543 0.008886 0.050791 -3.020363
2011-09-09 06:54:43 51°16.658 2°52.856 19.551 0.008886 0.050791 -3.020363
2011-09-09 06:54:49 51°16.676 2°52.841 19.5452 0.008886 0.050791 -3.020363
2011-09-09 06:54:53 51°16.687 2°52.831 19.5458 0.008886 0.050791 -3.020363
2011-09-09 06:54:59 51°16.705 2°52.817 19.5452 0.008886 0.050791 -3.020363
2011-09-09 06:55:04 51°16.72 2°52.805 19.5443 0.008886 0.050791 -3.020363
2011-09-09 06:55:09 51°16.736 2°52.794 19.5499 0.008886 0.050791 -3.020363
2011-09-09 06:55:13 51°16.748 2°52.786 19.5475 0.008886 0.050791 -3.020363
2011-09-09 06:55:19 51°16.766 2°52.774 19.5472 0.008886 0.050791 -3.020363
2011-09-09 06:55:24 51°16.781 2°52.764 19.5557 0.008886 0.050791 -3.020363
2011-09-09 06:55:29 51°16.797 2°52.755 19.5489 0.008886 0.050791 -3.020363
2011-09-09 06:55:33 51°16.809 2°52.746 19.5531 0.008886 0.050791 -3.020363
2011-09-09 06:55:38 51°16.824 2°52.736 19.5538 0.008886 0.050791 -3.020363
2011-09-09 06:55:44 51°16.842 2°52.723 19.5533 0.008886 0.050791 -3.020363
2011-09-09 06:55:49 51°16.857 2°52.713 19.5489 0.008886 0.050791 -3.020363
2011-09-09 06:55:53 51°16.869 2°52.704 19.5487 0.008886 0.050791 -3.020363
2011-09-09 06:55:59 51°16.887 2°52.692 19.5558 0.008886 0.050791 -3.020363
2011-09-09 06:56:04 51°16.902 2°52.681 19.552 0.008886 0.050791 -3.020363
2011-09-09 06:56:09 51°16.917 2°52.671 19.5495 0.008886 0.050791 -3.020363
2011-09-09 06:56:13 51°16.929 2°52.663 19.5562 0.008886 0.050791 -3.020363
2011-09-09 06:56:18 51°16.945 2°52.653 19.5605 0.008886 0.050791 -3.020363
2011-09-09 06:56:24 51°16.963 2°52.642 19.5512 0.008886 0.050791 -3.020363
2011-09-09 06:56:29 51°16.978 2°52.632 19.5522 0.008886 0.050791 -3.020363
2011-09-09 06:56:33 51°16.991 2°52.624 19.5516 0.008886 0.050791 -3.020363
2011-09-09 06:56:39 51°17.009 2°52.611 19.5587 0.008886 0.050791 -3.020363
2011-09-09 06:56:44 51°17.024 2°52.602 19.5622 0.008886 0.050791 -3.020363
2011-09-09 06:56:49 51°17.039 2°52.592 19.5544 0.008886 0.050791 -3.020363
2011-09-09 06:56:53 51°17.051 2°52.583 19.563 0.008886 0.050791 -3.020363
2011-09-09 06:56:59 51°17.069 2°52.57 19.562 0.008886 0.050791 -3.020363
2011-09-09 06:57:04 51°17.084 2°52.558 19.558 0.008886 0.050791 -3.020363
2011-09-09 06:57:09 51°17.098 2°52.547 19.559 0.008886 0.050791 -3.020363
2011-09-09 06:57:13 51°17.11 2°52.538 19.5629 0.008886 0.050791 -3.020363
2011-09-09 06:57:19 51°17.128 2°52.524 19.5612 0.008886 0.050791 -3.020363
2011-09-09 06:57:24 51°17.143 2°52.513 19.5634 0.008886 0.050791 -3.020363
2011-09-09 06:57:29 51°17.158 2°52.502 19.5645 0.008886 0.050791 -3.020363
2011-09-09 06:57:33 51°17.17 2°52.493 19.562 0.008886 0.050791 -3.020363
2011-09-09 06:57:39 51°17.188 2°52.48 19.5625 0.008886 0.050791 -3.020363
2011-09-09 06:57:44 51°17.203 2°52.47 19.5644 0.008886 0.050791 -3.020363
2011-09-09 06:57:49 51°17.218 2°52.459 19.5669 0.008886 0.050791 -3.020363
2011-09-09 06:57:53 51°17.23 2°52.451 19.57 0.008886 0.050791 -3.020363
2011-09-09 06:57:59 51°17.248 2°52.438 19.5741 0.008886 0.050791 -3.020363
2011-09-09 06:58:04 51°17.263 2°52.426 19.5719 0.008886 0.050791 -3.020363
2011-09-09 06:58:09 51°17.278 2°52.414 19.571 0.008886 0.050791 -3.020363
2011-09-09 06:58:13 51°17.29 2°52.404 19.5694 0.008886 0.050791 -3.020363
2011-09-09 06:58:19 51°17.307 2°52.389 19.575 0.008886 0.050791 -3.020363
2011-09-09 06:58:24 51°17.322 2°52.377 19.5727 0.008886 0.050791 -3.020363
2011-09-09 06:58:29 51°17.336 2°52.364 19.5682 0.008886 0.050791 -3.020363
2011-09-09 06:58:33 51°17.347 2°52.353 19.5776 0.008886 0.050791 -3.020363
2011-09-09 06:58:39 51°17.365 2°52.338 19.5784 0.008886 0.050791 -3.020363
2011-09-09 06:58:44 51°17.379 2°52.325 19.5739 0.008886 0.050791 -3.020363
2011-09-09 06:58:49 51°17.394 2°52.311 19.5804 0.008886 0.050791 -3.020363
2011-09-09 06:58:53 51°17.405 2°52.3 19.5788 0.008886 0.050791 -3.020363
2011-09-09 06:58:59 51°17.421 2°52.283 19.5801 0.008886 0.050791 -3.020363
2011-09-09 06:59:04 51°17.435 2°52.269 19.5783 0.008886 0.050791 -3.020363
2011-09-09 06:59:09 51°17.449 2°52.254 19.5792 0.008886 0.050791 -3.020363
2011-09-09 06:59:14 51°17.463 2°52.239 19.5802 0.008886 0.050791 -3.020363
2011-09-09 06:59:19 51°17.477 2°52.224 19.5813 0.008886 0.050791 -3.020363
2011-09-09 06:59:23 51°17.488 2°52.212 19.5756 0.008886 0.050791 -3.020363
2011-09-09 06:59:29 51°17.504 2°52.194 19.5822 0.008886 0.050791 -3.020363
2011-09-09 06:59:33 51°17.515 2°52.182 19.5868 0.008886 0.050791 -3.020363
2011-09-09 06:59:39 51°17.532 2°52.165 19.5816 0.008886 0.050791 -3.020363
2011-09-09 06:59:44 51°17.546 2°52.151 19.5868 0.008886 0.050791 -3.020363
2011-09-09 06:59:49 51°17.56 2°52.136 19.5848 0.008886 0.050791 -3.020363
2011-09-09 06:59:53 51°17.571 2°52.124 19.5912 0.008886 0.050791 -3.020363
2011-09-09 06:59:59 51°17.588 2°52.107 19.5912 0.008886 0.050791 -3.020363
2011-09-09 07:00:04 51°17.601 2°52.092 19.5878 0.008886 0.050791 -3.020363
2011-09-09 07:00:09 51°17.615 2°52.077 19.5913 0.008886 0.050791 -3.020363
2011-09-09 07:00:13 51°17.626 2°52.065 19.5921 0.008886 0.050791 -3.020363
2011-09-09 07:00:19 51°17.642 2°52.048 19.5873 0.008886 0.050791 -3.020363
2011-09-09 07:00:24 51°17.656 2°52.034 19.5866 0.008886 0.05079 -3.020363
2011-09-09 07:00:29 51°17.67 2°52.02 19.5926 0.008886 0.05079 -3.020363
2011-09-09 07:00:33 51°17.682 2°52.009 19.5951 0.008886 0.05079 -3.020363
2011-09-09 07:00:39 51°17.699 2°51.993 19.5933 0.008886 0.05079 -3.020363
2011-09-09 07:00:44 51°17.713 2°51.98 19.5981 0.008886 0.05079 -3.020363
2011-09-09 07:00:49 51°17.727 2°51.966 19.5995 0.008886 0.05079 -3.020363
2011-09-09 07:00:54 51°17.741 2°51.952 19.598 0.008886 0.05079 -3.020363
2011-09-09 07:00:59 51°17.755 2°51.939 19.6022 0.008886 0.05079 -3.020363
2011-09-09 07:01:03 51°17.767 2°51.928 19.5986 0.008886 0.05079 -3.020363
2011-09-09 07:01:09 51°17.783 2°51.91 19.607 0.008886 0.05079 -3.020363
2011-09-09 07:01:13 51°17.794 2°51.899 19.6056 0.008886 0.05079 -3.020363
2011-09-09 07:01:19 51°17.81 2°51.88 19.6003 0.008886 0.05079 -3.020363
2011-09-09 07:01:24 51°17.823 2°51.864 19.6057 0.008886 0.05079 -3.020363
2011-09-09 07:01:29 51°17.837 2°51.848 19.6006 0.008886 0.05079 -3.020363
2011-09-09 07:01:34 51°17.85 2°51.832 19.6052 0.008886 0.05079 -3.020363
2011-09-09 07:01:39 51°17.863 2°51.817 19.6066 0.008886 0.05079 -3.020363
2011-09-09 07:01:44 51°17.877 2°51.801 19.6095 0.008886 0.05079 -3.020363
2011-09-09 07:01:49 51°17.89 2°51.785 19.6039 0.008886 0.05079 -3.020363
2011-09-09 07:01:53 51°17.901 2°51.773 19.6082 0.008886 0.05079 -3.020363
2011-09-09 07:01:59 51°17.917 2°51.754 19.6067 0.008886 0.05079 -3.020363
2011-09-09 07:02:04 51°17.93 2°51.738 19.6068 0.008886 0.05079 -3.020363
2011-09-09 07:02:09 51°17.943 2°51.722 19.6062 0.008886 0.05079 -3.020363
2011-09-09 07:02:13 51°17.954 2°51.71 19.6132 0.008886 0.05079 -3.020363
2011-09-09 07:02:19 51°17.97 2°51.691 19.6086 0.008886 0.05079 -3.020363
2011-09-09 07:02:24 51°17.984 2°51.675 19.6128 0.008886 0.05079 -3.020363
2011-09-09 07:02:29 51°17.997 2°51.659 19.6132 0.008886 0.05079 -3.020363
2011-09-09 07:02:33 51°18.008 2°51.646 19.6093 0.008886 0.050789 -3.020363
2011-09-09 07:02:38 51°18.021 2°51.631 19.607 0.008886 0.050789 -3.020363
2011-09-09 07:02:44 51°18.038 2°51.613 19.6151 0.008886 0.05079 -3.020363
2011-09-09 07:02:49 51°18.052 2°51.599 19.6195 0.008886 0.050789 -3.020363
2011-09-09 07:02:54 51°18.066 2°51.585 19.6174 0.008886 0.050789 -3.020363
2011-09-09 07:02:59 51°18.081 2°51.572 19.6205 0.008886 0.050789 -3.020363
2011-09-09 07:03:03 51°18.092 2°51.561 19.618 0.008886 0.050789 -3.020363
2011-09-09 07:03:09 51°18.109 2°51.545 19.6229 0.008886 0.050789 -3.020363
2011-09-09 07:03:13 51°18.12 2°51.534 19.6213 0.008886 0.050789 -3.020363
2011-09-09 07:03:19 51°18.138 2°51.517 19.6216 0.008886 0.050789 -3.020363
2011-09-09 07:03:24 51°18.152 2°51.504 19.6232 0.008886 0.050789 -3.020363
2011-09-09 07:03:29 51°18.166 2°51.49 19.6225 0.008886 0.050789 -3.020363
2011-09-09 07:03:33 51°18.178 2°51.48 19.6237 0.008886 0.050789 -3.020363
2011-09-09 07:03:39 51°18.195 2°51.463 19.6292 0.008886 0.050789 -3.020363
2011-09-09 07:03:44 51°18.209 2°51.449 19.6256 0.008886 0.050789 -3.020363
2011-09-09 07:03:49 51°18.223 2°51.435 19.6267 0.008886 0.050789 -3.020363
2011-09-09 07:03:54 51°18.237 2°51.42 19.634 0.008886 0.050789 -3.020363
2011-09-09 07:03:59 51°18.251 2°51.406 19.631 0.008886 0.050789 -3.020363
2011-09-09 07:04:04 51°18.265 2°51.391 19.6351 0.008886 0.050789 -3.020363
2011-09-09 07:04:09 51°18.279 2°51.376 19.636 0.008886 0.050789 -3.020363
2011-09-09 07:04:13 51°18.29 2°51.364 19.6309 0.008886 0.050789 -3.020363
2011-09-09 07:04:19 51°18.306 2°51.344 19.6388 0.008886 0.050789 -3.020363
2011-09-09 07:04:24 51°18.319 2°51.328 19.6406 0.008886 0.050789 -3.020363
2011-09-09 07:04:29 51°18.332 2°51.311 19.6325 0.008886 0.050789 -3.020363
2011-09-09 07:04:33 51°18.343 2°51.298 19.6335 0.008886 0.050789 -3.020363
2011-09-09 07:04:38 51°18.356 2°51.282 19.6384 0.008886 0.050789 -3.020363
2011-09-09 07:04:44 51°18.373 2°51.264 19.6385 0.008886 0.050789 -3.020363
2011-09-09 07:04:49 51°18.386 2°51.249 19.642 0.008886 0.050789 -3.020363
2011-09-09 07:04:53 51°18.397 2°51.237 19.6423 0.008886 0.050789 -3.020363
2011-09-09 07:04:59 51°18.414 2°51.219 19.6394 0.008886 0.050789 -3.020363
2011-09-09 07:05:04 51°18.428 2°51.203 19.6428 0.008886 0.050789 -3.020363
2011-09-09 07:05:09 51°18.442 2°51.188 19.6488 0.008886 0.050789 -3.020363
2011-09-09 07:05:13 51°18.453 2°51.176 19.6467 0.008886 0.050789 -3.020363
2011-09-09 07:05:19 51°18.469 2°51.157 19.6437 0.008886 0.050789 -3.020363
2011-09-09 07:05:23 51°18.48 2°51.144 19.6481 0.008886 0.050789 -3.020363
2011-09-09 07:05:29 51°18.496 2°51.125 19.6492 0.008886 0.050789 -3.020363
2011-09-09 07:05:33 51°18.506 2°51.112 19.6516 0.008886 0.050789 -3.020363
2011-09-09 07:05:39 51°18.522 2°51.093 19.6439 0.008886 0.050789 -3.020363
2011-09-09 07:05:44 51°18.535 2°51.076 19.6525 0.008886 0.050789 -3.020363
2011-09-09 07:05:49 51°18.549 2°51.06 19.6446 0.008886 0.050789 -3.020363
2011-09-09 07:05:53 51°18.559 2°51.047 19.6513 0.008886 0.050789 -3.020363
2011-09-09 07:05:59 51°18.576 2°51.028 19.647 0.008886 0.050789 -3.020363
2011-09-09 07:06:04 51°18.589 2°51.012 19.6487 0.008886 0.050789 -3.020363
2011-09-09 07:06:09 51°18.603 2°50.997 19.6506 0.008886 0.050789 -3.020363
2011-09-09 07:06:13 51°18.614 2°50.985 19.6536 0.008886 0.050789 -3.020363
2011-09-09 07:06:19 51°18.631 2°50.968 19.6482 0.008886 0.050788 -3.020363
2011-09-09 07:06:24 51°18.645 2°50.953 19.6576 0.008886 0.050789 -3.020363
2011-09-09 07:06:29 51°18.66 2°50.94 19.6599 0.008886 0.050789 -3.020363
2011-09-09 07:06:33 51°18.671 2°50.929 19.6638 0.008886 0.050788 -3.020363
2011-09-09 07:06:39 51°18.688 2°50.912 19.6624 0.008886 0.050788 -3.020363
2011-09-09 07:06:44 51°18.702 2°50.897 19.6626 0.008886 0.050789 -3.020363
2011-09-09 07:06:49 51°18.716 2°50.883 19.6628 0.008886 0.050789 -3.020363
2011-09-09 07:06:53 51°18.727 2°50.871 19.6656 0.008886 0.050789 -3.020363
2011-09-09 07:06:59 51°18.744 2°50.853 19.6673 0.008886 0.050789 -3.020363
2011-09-09 07:07:04 51°18.757 2°50.838 19.6648 0.008886 0.050789 -3.020363
2011-09-09 07:07:09 51°18.771 2°50.823 19.6629 0.008886 0.050789 -3.020363
2011-09-09 07:07:13 51°18.782 2°50.811 19.6701 0.008886 0.050789 -3.020363
2011-09-09 07:07:19 51°18.799 2°50.792 19.6699 0.008886 0.050789 -3.020363
2011-09-09 07:07:24 51°18.812 2°50.776 19.6733 0.008886 0.050789 -3.020363
2011-09-09 07:07:29 51°18.825 2°50.759 19.6688 0.008886 0.050789 -3.020363
2011-09-09 07:07:33 51°18.836 2°50.747 19.6693 0.008886 0.050789 -3.020363
2011-09-09 07:07:39 51°18.852 2°50.727 19.6678 0.008886 0.050789 -3.020363
2011-09-09 07:07:44 51°18.866 2°50.711 19.6649 0.008886 0.050789 -3.020363
2011-09-09 07:07:49 51°18.879 2°50.694 19.6717 0.008886 0.050789 -3.020363
2011-09-09 07:07:53 51°18.89 2°50.681 19.6696 0.008886 0.050789 -3.020363
2011-09-09 07:07:59 51°18.906 2°50.662 19.666 0.008886 0.050789 -3.020363
2011-09-09 07:08:04 51°18.92 2°50.647 19.6731 0.008886 0.050788 -3.020363
2011-09-09 07:08:09 51°18.934 2°50.632 19.6746 0.008886 0.050788 -3.020363
2011-09-09 07:08:14 51°18.948 2°50.618 19.6744 0.008886 0.050788 -3.020363
2011-09-09 07:08:19 51°18.962 2°50.604 19.6738 0.008886 0.050788 -3.020363
2011-09-09 07:08:24 51°18.977 2°50.59 19.6825 0.008886 0.050788 -3.020363
2011-09-09 07:08:29 51°18.991 2°50.577 19.682 0.008886 0.050788 -3.020363
2011-09-09 07:08:33 51°19.003 2°50.566 19.6804 0.008886 0.050788 -3.020363
2011-09-09 07:08:39 51°19.02 2°50.549 19.6823 0.008886 0.050788 -3.020363
2011-09-09 07:08:44 51°19.034 2°50.534 19.6803 0.008886 0.050788 -3.020363
2011-09-09 07:08:49 51°19.048 2°50.519 19.6834 0.008886 0.050788 -3.020363
2011-09-09 07:08:53 51°19.059 2°50.507 19.6842 0.008886 0.050788 -3.020363
2011-09-09 07:08:58 51°19.073 2°50.493 19.6894 0.008886 0.050788 -3.020363
2011-09-09 07:09:04 51°19.09 2°50.474 19.687 0.008886 0.050788 -3.020363
2011-09-09 07:09:09 51°19.103 2°50.459 19.6886 0.008886 0.050788 -3.020363
2011-09-09 07:09:13 51°19.114 2°50.447 19.6898 0.008886 0.050788 -3.020363
2011-09-09 07:09:19 51°19.131 2°50.427 19.6888 0.008886 0.050788 -3.020363
2011-09-09 07:09:24 51°19.144 2°50.411 19.6838 0.008886 0.050788 -3.020363
2011-09-09 07:09:29 51°19.157 2°50.395 19.6845 0.008886 0.050788 -3.020363
2011-09-09 07:09:33 51°19.168 2°50.382 19.6921 0.008886 0.050788 -3.020363
2011-09-09 07:09:39 51°19.184 2°50.362 19.6913 0.008886 0.050788 -3.020363
2011-09-09 07:09:44 51°19.197 2°50.346 19.6956 0.008886 0.050788 -3.020363
2011-09-09 07:09:49 51°19.211 2°50.33 19.6924 0.008886 0.050788 -3.020363
2011-09-09 07:09:54 51°19.224 2°50.314 19.6888 0.008886 0.050788 -3.020363
2011-09-09 07:09:59 51°19.238 2°50.298 19.6957 0.008886 0.050788 -3.020363
2011-09-09 07:10:03 51°19.249 2°50.285 19.7002 0.008886 0.050788 -3.020363
2011-09-09 07:10:09 51°19.265 2°50.267 19.7013 0.008886 0.050788 -3.020363
2011-09-09 07:10:13 51°19.276 2°50.254 19.7002 0.008886 0.050788 -3.020363
2011-09-09 07:10:19 51°19.293 2°50.235 19.7035 0.008886 0.050788 -3.020363
2011-09-09 07:10:24 51°19.306 2°50.22 19.7001 0.008886 0.050788 -3.020363
2011-09-09 07:10:29 51°19.32 2°50.204 19.7057 0.008886 0.050788 -3.020363
2011-09-09 07:10:34 51°19.333 2°50.188 19.7039 0.008886 0.050788 -3.020363
2011-09-09 07:10:39 51°19.347 2°50.172 19.7035 0.008886 0.050788 -3.020363
2011-09-09 07:10:44 51°19.36 2°50.156 19.7018 0.008886 0.050788 -3.020363
2011-09-09 07:10:49 51°19.374 2°50.141 19.7049 0.008886 0.050788 -3.020363
2011-09-09 07:10:53 51°19.385 2°50.128 19.7056 0.008886 0.050788 -3.020363
2011-09-09 07:10:59 51°19.402 2°50.111 19.7099 0.008886 0.050788 -3.020363
2011-09-09 07:11:04 51°19.416 2°50.096 19.6979 0.008886 0.050788 -3.020363
2011-09-09 07:11:09 51°19.43 2°50.082 19.706 0.008886 0.050788 -3.020363
2011-09-09 07:11:13 51°19.442 2°50.071 19.7111 0.008886 0.050788 -3.020363
2011-09-09 07:11:18 51°19.456 2°50.057 19.7135 0.008886 0.050788 -3.020363
2011-09-09 07:11:24 51°19.474 2°50.042 19.7131 0.008886 0.050788 -3.020363
2011-09-09 07:11:29 51°19.489 2°50.028 19.7134 0.008886 0.050788 -3.020363
2011-09-09 07:11:33 51°19.5 2°50.017 19.7118 0.008886 0.050788 -3.020363
2011-09-09 07:11:39 51°19.518 2°50 19.7164 0.008886 0.050788 -3.020363
2011-09-09 07:11:44 51°19.532 2°49.985 19.7167 0.008886 0.050788 -3.020363
2011-09-09 07:11:49 51°19.546 2°49.971 19.7127 0.008886 0.050788 -3.020363
2011-09-09 07:11:53 51°19.558 2°49.96 19.7186 0.008886 0.050788 -3.020363
2011-09-09 07:11:59 51°19.575 2°49.943 19.7202 0.008886 0.050788 -3.020363
2011-09-09 07:12:04 51°19.59 2°49.929 19.7209 0.008886 0.050788 -3.020363
2011-09-09 07:12:09 51°19.604 2°49.915 19.7231 0.008886 0.050788 -3.020363
2011-09-09 07:12:13 51°19.616 2°49.904 19.7245 0.008886 0.050788 -3.020363
2011-09-09 07:12:19 51°19.633 2°49.887 19.7238 0.008886 0.050788 -3.020363
2011-09-09 07:12:24 51°19.647 2°49.871 19.7229 0.008886 0.050788 -3.020363
2011-09-09 07:12:29 51°19.661 2°49.857 19.7261 0.008886 0.050788 -3.020363
2011-09-09 07:12:34 51°19.675 2°49.842 19.7267 0.008886 0.050788 -3.020363
2011-09-09 07:12:39 51°19.689 2°49.826 19.7278 0.008886 0.050788 -3.020363
2011-09-09 07:12:44 51°19.703 2°49.811 19.7287 0.008886 0.050788 -3.020363
2011-09-09 07:12:49 51°19.717 2°49.795 19.7268 0.008886 0.050788 -3.020363
2011-09-09 07:12:53 51°19.728 2°49.782 19.7343 0.008886 0.050788 -3.020363
2011-09-09 07:12:59 51°19.744 2°49.764 19.7225 0.008886 0.050788 -3.020363
2011-09-09 07:13:04 51°19.758 2°49.748 19.7339 0.008886 0.050788 -3.020363
2011-09-09 07:13:09 51°19.772 2°49.732 19.733 0.008886 0.050788 -3.020363
2011-09-09 07:13:13 51°19.783 2°49.719 19.7354 0.008886 0.050788 -3.020363
2011-09-09 07:13:19 51°19.799 2°49.7 19.734 0.008886 0.050788 -3.020363
2011-09-09 07:13:24 51°19.813 2°49.684 19.741 0.008886 0.050788 -3.020363
2011-09-09 07:13:29 51°19.826 2°49.667 19.7326 0.008886 0.050788 -3.020363
2011-09-09 07:13:33 51°19.837 2°49.654 19.7404 0.008886 0.050788 -3.020363
2011-09-09 07:13:39 51°19.854 2°49.634 19.7361 0.008886 0.050788 -3.020363
2011-09-09 07:13:44 51°19.867 2°49.617 19.7369 0.008886 0.050788 -3.020363
2011-09-09 07:13:49 51°19.88 2°49.601 19.741 0.008886 0.050788 -3.020363
2011-09-09 07:13:53 51°19.891 2°49.587 19.7433 0.008886 0.050788 -3.020363
2011-09-09 07:13:58 51°19.904 2°49.57 19.74 0.008886 0.050788 -3.020363
2011-09-09 07:14:04 51°19.92 2°49.55 19.7486 0.008886 0.050788 -3.020363
2011-09-09 07:14:09 51°19.934 2°49.534 19.7454 0.008886 0.050788 -3.020363
2011-09-09 07:14:14 51°19.947 2°49.517 19.7458 0.008886 0.050788 -3.020363
2011-09-09 07:14:19 51°19.961 2°49.501 19.7419 0.008886 0.050788 -3.020363
2011-09-09 07:14:23 51°19.972 2°49.488 19.7442 0.008886 0.050788 -3.020363
2011-09-09 07:14:29 51°19.989 2°49.469 19.7471 0.008886 0.050788 -3.020363
2011-09-09 07:14:33 51°20 2°49.456 19.7534 0.008886 0.050788 -3.020363
2011-09-09 07:14:39 51°20.016 2°49.437 19.7464 0.008886 0.050788 -3.020363
2011-09-09 07:14:44 51°20.03 2°49.421 19.7499 0.008886 0.050788 -3.020363
2011-09-09 07:14:49 51°20.044 2°49.405 19.7514 0.008886 0.050788 -3.020363
2011-09-09 07:14:54 51°20.058 2°49.389 19.7557 0.008886 0.050788 -3.020363
2011-09-09 07:14:59 51°20.072 2°49.374 19.7509 0.008886 0.050788 -3.020363
2011-09-09 07:15:04 51°20.085 2°49.358 19.7568 0.008886 0.050788 -3.020363
2011-09-09 07:15:09 51°20.099 2°49.342 19.7511 0.008886 0.050788 -3.020363
2011-09-09 07:15:13 51°20.11 2°49.33 19.7555 0.008886 0.050788 -3.020363
2011-09-09 07:15:19 51°20.127 2°49.311 19.7589 0.008886 0.050788 -3.020363
2011-09-09 07:15:24 51°20.141 2°49.296 19.7613 0.008886 0.050788 -3.020363
2011-09-09 07:15:29 51°20.155 2°49.28 19.7592 0.008886 0.050788 -3.020363
2011-09-09 07:15:33 51°20.166 2°49.267 19.7526 0.008886 0.050788 -3.020363
2011-09-09 07:15:39 51°20.183 2°49.249 19.765 0.008886 0.050788 -3.020363
2011-09-09 07:15:44 51°20.197 2°49.234 19.7606 0.008886 0.050788 -3.020363
2011-09-09 07:15:49 51°20.211 2°49.218 19.7609 0.008886 0.050788 -3.020363
2011-09-09 07:15:53 51°20.221 2°49.206 19.7666 0.008886 0.050788 -3.020363
2011-09-09 07:15:58 51°20.235 2°49.19 19.7592 0.008886 0.050788 -3.020363
2011-09-09 07:16:04 51°20.252 2°49.172 19.7694 0.008886 0.050788 -3.020363
2011-09-09 07:16:09 51°20.266 2°49.157 19.7618 0.008886 0.050788 -3.020363
2011-09-09 07:16:13 51°20.277 2°49.145 19.7694 0.008886 0.050788 -3.020363
2011-09-09 07:16:19 51°20.294 2°49.126 19.7685 0.008886 0.050788 -3.020363
2011-09-09 07:16:24 51°20.309 2°49.112 19.7739 0.008886 0.050788 -3.020363
2011-09-09 07:16:29 51°20.323 2°49.097 19.7712 0.008886 0.050788 -3.020363
2011-09-09 07:16:33 51°20.334 2°49.085 19.7717 0.008886 0.050788 -3.020363
2011-09-09 07:16:38 51°20.348 2°49.07 19.7762 0.008886 0.050788 -3.020363
2011-09-09 07:16:44 51°20.365 2°49.052 19.7764 0.008886 0.050788 -3.020363
2011-09-09 07:16:49 51°20.379 2°49.036 19.7738 0.008886 0.050788 -3.020363
2011-09-09 07:16:53 51°20.39 2°49.024 19.7782 0.008886 0.050788 -3.020363
2011-09-09 07:16:59 51°20.407 2°49.005 19.7805 0.008886 0.050788 -3.020363
2011-09-09 07:17:04 51°20.421 2°48.989 19.779 0.008886 0.050788 -3.020363
2011-09-09 07:17:09 51°20.434 2°48.973 19.7775 0.008886 0.050788 -3.020363
2011-09-09 07:17:13 51°20.445 2°48.96 19.7813 0.008886 0.050788 -3.020363
2011-09-09 07:17:19 51°20.462 2°48.94 19.7845 0.008886 0.050788 -3.020363
2011-09-09 07:17:24 51°20.475 2°48.923 19.7812 0.008886 0.050788 -3.020363
2011-09-09 07:17:29 51°20.488 2°48.906 19.7797 0.008886 0.050788 -3.020363
2011-09-09 07:17:33 51°20.499 2°48.893 19.7805 0.008886 0.050788 -3.020363
2011-09-09 07:17:39 51°20.515 2°48.873 19.7851 0.008886 0.050788 -3.020363
2011-09-09 07:17:44 51°20.528 2°48.856 19.7816 0.008886 0.050788 -3.020363
2011-09-09 07:17:49 51°20.542 2°48.839 19.7875 0.008886 0.050788 -3.020363
2011-09-09 07:17:53 51°20.553 2°48.826 19.7882 0.008886 0.050788 -3.020363
2011-09-09 07:17:59 51°20.569 2°48.806 19.7837 0.008886 0.050788 -3.020363
2011-09-09 07:18:04 51°20.582 2°48.789 19.7855 0.008886 0.050788 -3.020363
2011-09-09 07:18:09 51°20.596 2°48.774 19.7897 0.008886 0.050788 -3.020363
2011-09-09 07:18:13 51°20.607 2°48.762 19.7923 0.008886 0.050788 -3.020363
2011-09-09 07:18:19 51°20.624 2°48.744 19.7824 0.008886 0.050788 -3.020363
2011-09-09 07:18:23 51°20.635 2°48.731 19.793 0.008886 0.050788 -3.020363
2011-09-09 07:18:29 51°20.652 2°48.713 19.7902 0.008886 0.050788 -3.020363
2011-09-09 07:18:33 51°20.663 2°48.701 19.7956 0.008886 0.050788 -3.020363
2011-09-09 07:18:39 51°20.681 2°48.685 19.7939 0.008886 0.050788 -3.020363
2011-09-09 07:18:44 51°20.695 2°48.67 19.7982 0.008886 0.050788 -3.020363
2011-09-09 07:18:49 51°20.709 2°48.655 19.7988 0.008886 0.050788 -3.020363
2011-09-09 07:18:53 51°20.721 2°48.644 19.7985 0.008886 0.050788 -3.020363
2011-09-09 07:18:59 51°20.737 2°48.625 19.8014 0.008886 0.050788 -3.020363
2011-09-09 07:19:04 51°20.751 2°48.61 19.7995 0.008886 0.050788 -3.020363
2011-09-09 07:19:09 51°20.765 2°48.595 19.8101 0.008886 0.050788 -3.020363
2011-09-09 07:19:14 51°20.779 2°48.579 19.8033 0.008886 0.050788 -3.020363
2011-09-09 07:19:19 51°20.793 2°48.563 19.8041 0.008886 0.050788 -3.020363
2011-09-09 07:19:24 51°20.807 2°48.547 19.8001 0.008886 0.050788 -3.020363
2011-09-09 07:19:29 51°20.82 2°48.53 19.8066 0.008886 0.050788 -3.020363
2011-09-09 07:19:33 51°20.831 2°48.518 19.8076 0.008886 0.050788 -3.020363
2011-09-09 07:19:39 51°20.847 2°48.498 19.8089 0.008886 0.050788 -3.020363
2011-09-09 07:19:44 51°20.861 2°48.482 19.8001 0.008886 0.050788 -3.020363
2011-09-09 07:19:49 51°20.875 2°48.465 19.8005 0.008886 0.050788 -3.020363
2011-09-09 07:19:53 51°20.886 2°48.452 19.815 0.008886 0.050788 -3.020363
2011-09-09 07:19:59 51°20.902 2°48.433 19.8102 0.008886 0.050788 -3.020363
2011-09-09 07:20:04 51°20.915 2°48.416 19.8117 0.008886 0.050788 -3.020363
2011-09-09 07:20:09 51°20.929 2°48.4 19.8132 0.008886 0.050788 -3.020363
2011-09-09 07:20:13 51°20.94 2°48.387 19.8103 0.008886 0.050788 -3.020363
2011-09-09 07:20:19 51°20.956 2°48.368 19.8159 0.008886 0.050788 -3.020363
2011-09-09 07:20:24 51°20.97 2°48.352 19.8182 0.008886 0.050788 -3.020363
2011-09-09 07:20:29 51°20.984 2°48.336 19.8164 0.008886 0.050788 -3.020363
2011-09-09 07:20:33 51°20.995 2°48.323 19.8161 0.008886 0.050788 -3.020363
2011-09-09 07:20:38 51°21.008 2°48.307 19.8167 0.008886 0.050788 -3.020363
2011-09-09 07:20:44 51°21.024 2°48.287 19.8157 0.008886 0.050788 -3.020363
2011-09-09 07:20:49 51°21.038 2°48.271 19.8162 0.008886 0.050788 -3.020363
2011-09-09 07:20:53 51°21.049 2°48.259 19.8275 0.008886 0.050788 -3.020363
2011-09-09 07:20:59 51°21.066 2°48.24 19.8231 0.008886 0.050788 -3.020363
2011-09-09 07:21:04 51°21.08 2°48.224 19.8266 0.008886 0.050788 -3.020363
2011-09-09 07:21:09 51°21.094 2°48.208 19.8192 0.008886 0.050788 -3.020363
2011-09-09 07:21:13 51°21.105 2°48.196 19.822 0.008886 0.050788 -3.020363
2011-09-09 07:21:19 51°21.122 2°48.179 19.8274 0.008886 0.050788 -3.020363
2011-09-09 07:21:24 51°21.136 2°48.164 19.8272 0.008886 0.050788 -3.020363
2011-09-09 07:21:29 51°21.15 2°48.149 19.831 0.008886 0.050788 -3.020363
2011-09-09 07:21:33 51°21.162 2°48.138 19.8281 0.008886 0.050788 -3.020363
2011-09-09 07:21:39 51°21.179 2°48.121 19.8331 0.008886 0.050788 -3.020363
2011-09-09 07:21:44 51°21.194 2°48.106 19.8298 0.008886 0.050788 -3.020363
2011-09-09 07:21:49 51°21.208 2°48.092 19.8286 0.008886 0.050788 -3.020363
2011-09-09 07:21:53 51°21.22 2°48.08 19.8335 0.008886 0.050788 -3.020363
2011-09-09 07:21:59 51°21.237 2°48.062 19.8311 0.008886 0.050788 -3.020363
2011-09-09 07:22:04 51°21.251 2°48.048 19.8315 0.008886 0.050788 -3.020363
2011-09-09 07:22:09 51°21.265 2°48.033 19.8371 0.008886 0.050788 -3.020363
2011-09-09 07:22:13 51°21.277 2°48.022 19.8372 0.008886 0.050788 -3.020363
2011-09-09 07:22:19 51°21.294 2°48.004 19.8308 0.008886 0.050788 -3.020363
2011-09-09 07:22:24 51°21.309 2°47.99 19.8432 0.008886 0.050788 -3.020363
2011-09-09 07:22:29 51°21.323 2°47.976 19.8429 0.008886 0.050788 -3.020363
2011-09-09 07:22:33 51°21.335 2°47.964 19.8476 0.008886 0.050788 -3.020363
2011-09-09 07:22:39 51°21.352 2°47.946 19.8448 0.008886 0.050788 -3.020363
2011-09-09 07:22:44 51°21.366 2°47.931 19.8503 0.008886 0.050788 -3.020363
2011-09-09 07:22:49 51°21.381 2°47.916 19.8412 0.008886 0.050788 -3.020363
2011-09-09 07:22:53 51°21.392 2°47.903 19.8526 0.008886 0.050788 -3.020363
2011-09-09 07:22:59 51°21.408 2°47.885 19.8462 0.008886 0.050788 -3.020363
2011-09-09 07:23:04 51°21.422 2°47.869 19.8416 0.008886 0.050788 -3.020363
2011-09-09 07:23:09 51°21.436 2°47.853 19.846 0.008886 0.050788 -3.020363
2011-09-09 07:23:13 51°21.447 2°47.84 19.8528 0.008886 0.050788 -3.020363
2011-09-09 07:23:19 51°21.464 2°47.821 19.8523 0.008886 0.050788 -3.020363
2011-09-09 07:23:24 51°21.478 2°47.805 19.8519 0.008886 0.050788 -3.020363
2011-09-09 07:23:29 51°21.492 2°47.789 19.8463 0.008886 0.050788 -3.020363
2011-09-09 07:23:33 51°21.503 2°47.776 19.8467 0.008886 0.050788 -3.020363
2011-09-09 07:23:39 51°21.519 2°47.756 19.849 0.008886 0.050788 -3.020363
2011-09-09 07:23:44 51°21.533 2°47.739 19.8459 0.008886 0.050788 -3.020363
2011-09-09 07:23:49 51°21.547 2°47.724 19.8564 0.008886 0.050788 -3.020363
2011-09-09 07:23:53 51°21.558 2°47.712 19.8569 0.008886 0.050788 -3.020363
2011-09-09 07:23:59 51°21.576 2°47.694 19.8577 0.008886 0.050788 -3.020363
2011-09-09 07:24:04 51°21.59 2°47.68 19.8577 0.008886 0.050788 -3.020363
2011-09-09 07:24:09 51°21.604 2°47.665 19.8659 0.008886 0.050788 -3.020363
2011-09-09 07:24:13 51°21.616 2°47.654 19.8594 0.008886 0.050788 -3.020363
2011-09-09 07:24:19 51°21.633 2°47.636 19.8623 0.008886 0.050788 -3.020363
2011-09-09 07:24:24 51°21.648 2°47.622 19.8681 0.008886 0.050788 -3.020363
2011-09-09 07:24:29 51°21.662 2°47.607 19.8683 0.008886 0.050788 -3.020363
2011-09-09 07:24:33 51°21.673 2°47.595 19.863 0.008886 0.050788 -3.020363
2011-09-09 07:24:39 51°21.69 2°47.578 19.8709 0.008886 0.050788 -3.020363
2011-09-09 07:24:44 51°21.704 2°47.563 19.8581 0.008886 0.050788 -3.020363
2011-09-09 07:24:49 51°21.718 2°47.547 19.8694 0.008886 0.050788 -3.020363
2011-09-09 07:24:53 51°21.73 2°47.535 19.8671 0.008886 0.050788 -3.020363
2011-09-09 07:24:59 51°21.746 2°47.516 19.8697 0.008886 0.050788 -3.020363
2011-09-09 07:25:04 51°21.76 2°47.501 19.8731 0.008886 0.050788 -3.020363
2011-09-09 07:25:09 51°21.774 2°47.485 19.8676 0.008886 0.050788 -3.020363
2011-09-09 07:25:13 51°21.785 2°47.472 19.874 0.008886 0.050788 -3.020363
2011-09-09 07:25:19 51°21.801 2°47.453 19.8676 0.008886 0.050788 -3.020363
2011-09-09 07:25:23 51°21.813 2°47.44 19.8718 0.008886 0.050788 -3.020363
2011-09-09 07:25:29 51°21.829 2°47.421 19.872 0.008886 0.050788 -3.020363
2011-09-09 07:25:33 51°21.84 2°47.408 19.8755 0.008886 0.050788 -3.020363
2011-09-09 07:25:39 51°21.857 2°47.389 19.8765 0.008886 0.050788 -3.020363
2011-09-09 07:25:44 51°21.87 2°47.373 19.8712 0.008886 0.050788 -3.020363
2011-09-09 07:25:49 51°21.884 2°47.357 19.8742 0.008886 0.050788 -3.020363
2011-09-09 07:25:53 51°21.896 2°47.345 19.8788 0.008886 0.050788 -3.020363
2011-09-09 07:25:59 51°21.913 2°47.327 19.8806 0.008886 0.050787 -3.020363
2011-09-09 07:26:04 51°21.927 2°47.312 19.8788 0.008886 0.050788 -3.020363
2011-09-09 07:26:09 51°21.941 2°47.297 19.8837 0.008886 0.050788 -3.020363
2011-09-09 07:26:13 51°21.952 2°47.285 19.8845 0.008886 0.050788 -3.020363
2011-09-09 07:26:19 51°21.969 2°47.267 19.873 0.008886 0.050787 -3.020363
2011-09-09 07:26:24 51°21.984 2°47.253 19.8895 0.008886 0.050787 -3.020363
2011-09-09 07:26:29 51°21.998 2°47.238 19.8899 0.008886 0.050788 -3.020363
2011-09-09 07:26:33 51°22.01 2°47.227 19.8888 0.008886 0.050788 -3.020363
2011-09-09 07:26:39 51°22.027 2°47.21 19.8908 0.008886 0.050788 -3.020363
2011-09-09 07:26:44 51°22.042 2°47.196 19.8918 0.008886 0.050788 -3.020363
2011-09-09 07:26:49 51°22.056 2°47.181 19.8938 0.008886 0.050788 -3.020363
2011-09-09 07:26:53 51°22.067 2°47.169 19.895 0.008886 0.050788 -3.020363
2011-09-09 07:26:59 51°22.084 2°47.151 19.8863 0.008886 0.050787 -3.020363
2011-09-09 07:27:04 51°22.098 2°47.136 19.8922 0.008886 0.050787 -3.020363
2011-09-09 07:27:09 51°22.113 2°47.121 19.8968 0.008886 0.050787 -3.020363
2011-09-09 07:27:13 51°22.124 2°47.109 19.9013 0.008886 0.050788 -3.020363
2011-09-09 07:27:19 51°22.141 2°47.091 19.8885 0.008886 0.050788 -3.020363
2011-09-09 07:27:23 51°22.152 2°47.078 19.9019 0.008886 0.050788 -3.020363
2011-09-09 07:27:29 51°22.168 2°47.059 19.892 0.008886 0.050788 -3.020363
2011-09-09 07:27:33 51°22.179 2°47.046 19.8957 0.008886 0.050788 -3.020363
2011-09-09 07:27:39 51°22.195 2°47.027 19.9015 0.008886 0.050788 -3.020363
2011-09-09 07:27:44 51°22.209 2°47.01 19.9008 0.008886 0.050787 -3.020363
2011-09-09 07:27:49 51°22.222 2°46.993 19.8968 0.008886 0.050788 -3.020363
2011-09-09 07:27:53 51°22.233 2°46.98 19.8999 0.008886 0.050788 -3.020363
2011-09-09 07:27:59 51°22.249 2°46.96 19.9014 0.008886 0.050788 -3.020363
2011-09-09 07:28:04 51°22.262 2°46.943 19.9044 0.008886 0.050788 -3.020363
2011-09-09 07:28:09 51°22.275 2°46.926 19.9059 0.008886 0.050788 -3.020363
2011-09-09 07:28:14 51°22.288 2°46.909 19.8981 0.008886 0.050788 -3.020363
2011-09-09 07:28:19 51°22.301 2°46.892 19.9077 0.008886 0.050787 -3.020363
2011-09-09 07:28:23 51°22.312 2°46.879 19.9008 0.008886 0.050787 -3.020363
2011-09-09 07:28:29 51°22.328 2°46.859 19.9081 0.008886 0.050787 -3.020363
2011-09-09 07:28:33 51°22.339 2°46.847 19.9094 0.008886 0.050787 -3.020363
2011-09-09 07:28:39 51°22.355 2°46.828 19.9091 0.008886 0.050787 -3.020363
2011-09-09 07:28:44 51°22.369 2°46.812 19.912 0.008886 0.050787 -3.020363
2011-09-09 07:28:49 51°22.383 2°46.797 19.9194 0.008886 0.050787 -3.020363
2011-09-09 07:28:53 51°22.394 2°46.785 19.9045 0.008886 0.050787 -3.020363
2011-09-09 07:28:59 51°22.41 2°46.765 19.9077 0.008886 0.050787 -3.020363
2011-09-09 07:29:04 51°22.424 2°46.75 19.9164 0.008886 0.050788 -3.020363
2011-09-09 07:29:09 51°22.437 2°46.734 19.9151 0.008886 0.050788 -3.020363
2011-09-09 07:29:13 51°22.449 2°46.723 19.9184 0.008886 0.050787 -3.020363
2011-09-09 07:29:19 51°22.466 2°46.704 19.9154 0.008886 0.050787 -3.020363
2011-09-09 07:29:24 51°22.48 2°46.69 19.9179 0.008886 0.050787 -3.020363
2011-09-09 07:29:29 51°22.494 2°46.675 19.9138 0.008886 0.050787 -3.020363
2011-09-09 07:29:33 51°22.505 2°46.663 19.9187 0.008886 0.050787 -3.020363
2011-09-09 07:29:39 51°22.522 2°46.646 19.9123 0.008886 0.050787 -3.020363
2011-09-09 07:29:44 51°22.536 2°46.632 19.9179 0.008886 0.050787 -3.020363
2011-09-09 07:29:49 51°22.551 2°46.618 19.9241 0.008886 0.050787 -3.020363
2011-09-09 07:29:53 51°22.562 2°46.607 19.9272 0.008886 0.050787 -3.020363
2011-09-09 07:29:59 51°22.58 2°46.59 19.9213 0.008886 0.050786 -3.020363
2011-09-09 07:30:04 51°22.593 2°46.575 19.9301 0.008886 0.050787 -3.020363
2011-09-09 07:30:09 51°22.608 2°46.56 19.929 0.008886 0.050787 -3.020363
2011-09-09 07:30:13 51°22.619 2°46.548 19.9213 0.008886 0.050786 -3.020363
2011-09-09 07:30:19 51°22.636 2°46.53 19.9335 0.008886 0.050787 -3.020363
2011-09-09 07:30:24 51°22.65 2°46.515 19.9318 0.008886 0.050786 -3.020363
2011-09-09 07:30:29 51°22.664 2°46.5 19.9318 0.008886 0.050786 -3.020363
2011-09-09 07:30:33 51°22.675 2°46.488 19.9367 0.008886 0.050786 -3.020363
2011-09-09 07:30:39 51°22.692 2°46.47 19.9354 0.008886 0.050786 -3.020363
2011-09-09 07:30:44 51°22.706 2°46.455 19.9383 0.008886 0.050786 -3.020363
2011-09-09 07:30:49 51°22.719 2°46.439 19.9349 0.008886 0.050786 -3.020363
2011-09-09 07:30:53 51°22.73 2°46.426 19.9391 0.008886 0.050786 -3.020363
2011-09-09 07:30:59 51°22.746 2°46.407 19.9353 0.008886 0.050786 -3.020363
2011-09-09 07:31:04 51°22.76 2°46.391 19.9376 0.008886 0.050786 -3.020363
2011-09-09 07:31:09 51°22.774 2°46.375 19.9365 0.008886 0.050786 -3.020363
2011-09-09 07:31:13 51°22.785 2°46.362 19.9391 0.008886 0.050786 -3.020363
2011-09-09 07:31:19 51°22.802 2°46.343 19.9392 0.008886 0.050786 -3.020363
2011-09-09 07:31:24 51°22.815 2°46.327 19.9417 0.008886 0.050786 -3.020363
2011-09-09 07:31:29 51°22.829 2°46.311 19.946 0.008886 0.050785 -3.020363
2011-09-09 07:31:33 51°22.84 2°46.298 19.9379 0.008886 0.050785 -3.020363
2011-09-09 07:31:39 51°22.856 2°46.279 19.9523 0.008886 0.050785 -3.020363
2011-09-09 07:31:44 51°22.869 2°46.263 19.9476 0.008886 0.050785 -3.020363
2011-09-09 07:31:49 51°22.883 2°46.246 19.9415 0.008886 0.050785 -3.020363
2011-09-09 07:31:53 51°22.894 2°46.233 19.9452 0.008886 0.050785 -3.020363
2011-09-09 07:31:59 51°22.91 2°46.214 19.9386 0.008886 0.050785 -3.020363
2011-09-09 07:32:04 51°22.924 2°46.198 19.9518 0.008886 0.050785 -3.020363
2011-09-09 07:32:09 51°22.937 2°46.182 19.9426 0.008886 0.050785 -3.020363
2011-09-09 07:32:13 51°22.949 2°46.17 19.9512 0.008886 0.050785 -3.020363
2011-09-09 07:32:19 51°22.965 2°46.151 19.9541 0.008886 0.050785 -3.020363
2011-09-09 07:32:24 51°22.979 2°46.136 19.9541 0.008886 0.050784 -3.020363
2011-09-09 07:32:29 51°22.993 2°46.121 19.9476 0.008886 0.050785 -3.020363
2011-09-09 07:32:33 51°23.004 2°46.108 19.9587 0.008886 0.050784 -3.020363
2011-09-09 07:32:39 51°23.021 2°46.091 19.9458 0.008886 0.050784 -3.020363
2011-09-09 07:32:44 51°23.035 2°46.076 19.9588 0.008886 0.050784 -3.020363
2011-09-09 07:32:49 51°23.05 2°46.061 19.9535 0.008886 0.050784 -3.020363
2011-09-09 07:32:53 51°23.061 2°46.049 19.9593 0.008886 0.050784 -3.020363
2011-09-09 07:32:59 51°23.078 2°46.032 19.9601 0.008886 0.050783 -3.020363
2011-09-09 07:33:04 51°23.093 2°46.018 19.9533 0.008886 0.050783 -3.020363
2011-09-09 07:33:09 51°23.107 2°46.003 19.9655 0.008886 0.050783 -3.020363
2011-09-09 07:33:13 51°23.118 2°45.991 19.9686 0.008886 0.050783 -3.020363
2011-09-09 07:33:19 51°23.135 2°45.971 19.9713 0.008886 0.050783 -3.020363
2011-09-09 07:33:24 51°23.148 2°45.956 19.9597 0.008886 0.050783 -3.020363
2011-09-09 07:33:29 51°23.162 2°45.939 19.9698 0.008886 0.050783 -3.020363
2011-09-09 07:33:33 51°23.172 2°45.926 19.971 0.008886 0.050783 -3.020363
2011-09-09 07:33:39 51°23.188 2°45.906 19.9688 0.008886 0.050783 -3.020363
2011-09-09 07:33:44 51°23.201 2°45.888 19.9607 0.008886 0.050783 -3.020363
2011-09-09 07:33:49 51°23.214 2°45.87 19.9655 0.008886 0.050783 -3.020363
2011-09-09 07:33:53 51°23.225 2°45.856 19.9745 0.008886 0.050783 -3.020363
2011-09-09 07:33:59 51°23.24 2°45.834 19.9649 0.008886 0.050782 -3.020363
2011-09-09 07:34:04 51°23.253 2°45.816 19.9696 0.008886 0.050783 -3.020363
2011-09-09 07:34:09 51°23.265 2°45.798 19.9671 0.008886 0.050783 -3.020363
2011-09-09 07:34:13 51°23.275 2°45.783 19.9838 0.008886 0.050782 -3.020363
2011-09-09 07:34:18 51°23.288 2°45.765 19.961 0.008886 0.050782 -3.020363
2011-09-09 07:34:24 51°23.303 2°45.742 19.9784 0.008886 0.050782 -3.020363
2011-09-09 07:34:29 51°23.316 2°45.725 19.9689 0.008886 0.050782 -3.020363
2011-09-09 07:34:33 51°23.325 2°45.71 19.98 0.008886 0.050782 -3.020363
2011-09-09 07:34:39 51°23.341 2°45.689 19.9768 0.008886 0.050782 -3.020363
2011-09-09 07:34:44 51°23.354 2°45.671 19.9735 0.008886 0.050782 -3.020363
2011-09-09 07:34:49 51°23.367 2°45.654 19.9828 0.008886 0.050782 -3.020363
2011-09-09 07:34:54 51°23.38 2°45.636 19.9737 0.008886 0.050782 -3.020363
2011-09-09 07:34:59 51°23.393 2°45.618 19.9846 0.008886 0.050781 -3.020363
2011-09-09 07:35:04 51°23.406 2°45.601 19.9796 0.008886 0.050781 -3.020363
2011-09-09 07:35:09 51°23.42 2°45.584 19.9836 0.008886 0.050781 -3.020363
2011-09-09 07:35:13 51°23.43 2°45.571 19.984 0.008886 0.050781 -3.020363
2011-09-09 07:35:19 51°23.446 2°45.55 19.9838 0.008886 0.050781 -3.020363
2011-09-09 07:35:24 51°23.46 2°45.533 19.9922 0.008886 0.050781 -3.020363
2011-09-09 07:35:29 51°23.473 2°45.516 19.9873 0.008886 0.05078 -3.020363
2011-09-09 07:35:34 51°23.486 2°45.498 19.9812 0.008886 0.05078 -3.020363
2011-09-09 07:35:39 51°23.499 2°45.481 19.9939 0.008886 0.05078 -3.020363
2011-09-09 07:35:44 51°23.511 2°45.463 19.9984 0.008886 0.05078 -3.020363
2011-09-09 07:35:49 51°23.524 2°45.446 19.9989 0.008886 0.05078 -3.020363
2011-09-09 07:35:53 51°23.535 2°45.431 19.9938 0.008886 0.05078 -3.020363
2011-09-09 07:35:59 51°23.55 2°45.409 20.0031 0.008886 0.05078 -3.020363
2011-09-09 07:36:04 51°23.562 2°45.389 19.9886 0.008886 0.05078 -3.020363
2011-09-09 07:36:09 51°23.574 2°45.37 20.0033 0.008886 0.05078 -3.020363
2011-09-09 07:36:13 51°23.583 2°45.354 20.0007 0.008886 0.05078 -3.020363
2011-09-09 07:36:18 51°23.595 2°45.335 20.0034 0.008886 0.050779 -3.020363
2011-09-09 07:36:24 51°23.61 2°45.312 19.9963 0.008886 0.050779 -3.020363
2011-09-09 07:36:29 51°23.622 2°45.293 20.0044 0.008886 0.050779 -3.020363
2011-09-09 07:36:33 51°23.632 2°45.277 19.9973 0.008886 0.050779 -3.020363
2011-09-09 07:36:39 51°23.646 2°45.254 19.9986 0.008886 0.050779 -3.020363
2011-09-09 07:36:44 51°23.658 2°45.235 19.9991 0.008886 0.050779 -3.020363
2011-09-09 07:36:49 51°23.67 2°45.216 20.0034 0.008886 0.050779 -3.020363
2011-09-09 07:36:53 51°23.68 2°45.201 20.0043 0.008886 0.050779 -3.020363
2011-09-09 07:36:59 51°23.696 2°45.179 20.0057 0.008886 0.050779 -3.020363
2011-09-09 07:37:04 51°23.708 2°45.159 20.0112 0.008886 0.050779 -3.020363
2011-09-09 07:37:09 51°23.72 2°45.14 20.006 0.008886 0.050779 -3.020363
2011-09-09 07:37:13 51°23.73 2°45.125 20.0103 0.008886 0.050779 -3.020363
2011-09-09 07:37:19 51°23.744 2°45.101 18.0189 0.008886 0.050779 -3.020363
2011-09-09 07:37:24 51°23.755 2°45.081 17.7796 0.008886 0.050793 -3.020363
2011-09-09 07:37:29 51°23.767 2°45.061 17.5895 0.008886 0.050811 -3.020363
2011-09-09 07:37:34 51°23.779 2°45.041 17.5221 1.413681 9.431802 -3.020363
2011-09-09 07:37:39 51°23.791 2°45.022 17.4476 1.413681 9.431802 -3.020363
2011-09-09 07:37:44 51°23.803 2°45.003 17.4258 3.863358 27.867638 -3.020363
2011-09-09 07:37:49 51°23.816 2°44.984 17.3881 4.131557 30.094847 -3.020363
2011-09-09 07:37:53 51°23.825 2°44.969 17.3622 4.156233 30.537611 -3.020363
2011-09-09 07:37:59 51°23.84 2°44.947 17.3557 3.586619 26.197543 -3.020363
2011-09-09 07:38:04 51°23.853 2°44.928 17.3618 4.345366 32.677986 -3.020363
2011-09-09 07:38:09 51°23.865 2°44.91 17.3441 4.345366 32.677986 -3.020363
2011-09-09 07:38:13 51°23.875 2°44.895 17.3432 4.440476 33.671611 -3.020363
2011-09-09 07:38:19 51°23.89 2°44.872 17.3405 4.442138 33.818085 -3.020363
2011-09-09 07:38:24 51°23.902 2°44.853 17.3399 4.436954 33.879307 -3.020363
2011-09-09 07:38:29 51°23.914 2°44.834 17.3338 4.429176 33.880705 -3.020363
2011-09-09 07:38:33 51°23.924 2°44.818 17.3363 4.398475 33.657797 -3.020363
2011-09-09 07:38:39 51°23.938 2°44.794 17.3348 4.398475 33.657797 -3.020363
2011-09-09 07:38:43 51°23.948 2°44.779 17.3264 4.475129 34.348801 -3.020363
2011-09-09 07:38:49 51°23.962 2°44.756 17.3313 4.465275 34.285102 -3.020363
2011-09-09 07:38:53 51°23.972 2°44.741 17.325 4.46237 34.278415 -3.020363
2011-09-09 07:38:59 51°23.987 2°44.72 17.3294 4.456354 34.239537 -3.020363
2011-09-09 07:39:04 51°24 2°44.702 17.3266 4.45428 34.230491 -3.020363
2011-09-09 07:39:09 51°24.014 2°44.685 17.3234 4.45428 34.230491 -3.020363
2011-09-09 07:39:13 51°24.024 2°44.672 17.3214 4.452309 34.218274 -3.020363
2011-09-09 07:39:19 51°24.041 2°44.652 17.3245 4.450961 34.21344 -3.020363
2011-09-09 07:39:24 51°24.055 2°44.637 17.3233 4.450961 34.218179 -3.020363
2011-09-09 07:39:29 51°24.069 2°44.622 17.3248 4.44536 34.174037 -3.020363
2011-09-09 07:39:33 51°24.08 2°44.61 17.3221 4.447849 34.198844 -3.020363
2011-09-09 07:39:39 51°24.097 2°44.592 17.3258 4.447849 34.198844 -3.020363
2011-09-09 07:39:44 51°24.112 2°44.578 17.3244 4.450857 34.226769 -3.020363
2011-09-09 07:39:49 51°24.126 2°44.564 17.3217 4.447642 34.201797 -3.020363
2011-09-09 07:39:53 51°24.137 2°44.552 17.3209 4.451687 34.239335 -3.020363
2011-09-09 07:39:59 51°24.155 2°44.535 17.3219 4.447019 34.199825 -3.020363
2011-09-09 07:40:04 51°24.169 2°44.52 17.3187 4.447953 34.209894 -3.020363
2011-09-09 07:40:09 51°24.183 2°44.505 17.3189 4.447953 34.209894 -3.020363
2011-09-09 07:40:13 51°24.194 2°44.492 17.317 4.447849 34.209678 -3.020363
2011-09-09 07:40:19 51°24.211 2°44.475 17.317 4.433224 34.085817 -3.020363
2011-09-09 07:40:24 51°24.224 2°44.461 17.3162 4.450754 34.238753 -3.020363
2011-09-09 07:40:29 51°24.236 2°44.447 17.3165 4.449405 34.227819 -3.020363
2011-09-09 07:40:33 51°24.245 2°44.435 17.3165 4.452517 34.255975 -3.020363
2011-09-09 07:40:38 51°24.257 2°44.423 17.3167 4.452517 34.255975 -3.020363
2011-09-09 07:40:44 51°24.269 2°44.407 17.3143 4.453762 34.268053 -3.020363
2011-09-09 07:40:49 51°24.279 2°44.395 17.3111 4.450235 34.24039 -3.020363
2011-09-09 07:40:53 51°24.287 2°44.386 17.3165 4.451065 34.247537 -3.020363
2011-09-09 07:40:59 51°24.299 2°44.372 17.3147 4.449924 34.239066 -3.020363
2011-09-09 07:41:04 51°24.308 2°44.361 17.3108 4.451272 34.25136 -3.020363
2011-09-09 07:41:09 51°24.317 2°44.35 17.3154 4.451272 34.25136 -3.020363
2011-09-09 07:41:13 51°24.324 2°44.342 17.3085 4.451791 34.256506 -3.020363
2011-09-09 07:41:19 51°24.334 2°44.329 17.3096 4.444426 34.194428 -3.020363
2011-09-09 07:41:23 51°24.341 2°44.321 17.3071 4.452414 34.263904 -3.020363
2011-09-09 07:41:29 51°24.351 2°44.309 17.3103 4.452932 34.269051 -3.020363
2011-09-09 07:41:33 51°24.358 2°44.301 17.3073 4.445879 34.209645 -3.020363
2011-09-09 07:41:39 51°24.368 2°44.289 17.3081 4.445879 34.209645 -3.020363
2011-09-09 07:41:44 51°24.376 2°44.28 17.3083 4.449509 34.242275 -3.020363
2011-09-09 07:41:49 51°24.384 2°44.27 17.3071 4.452932 34.272446 -3.020363
2011-09-09 07:41:53 51°24.391 2°44.263 17.3055 4.444634 34.20299 -3.020363
2011-09-09 07:41:59 51°24.401 2°44.252 17.3053 4.452932 34.275162 -3.020363
2011-09-09 07:42:04 51°24.409 2°44.242 17.302 4.455629 34.298403 -3.020363
2011-09-09 07:42:09 51°24.417 2°44.233 17.3025 4.455629 34.298403 -3.020363
2011-09-09 07:42:13 51°24.423 2°44.225 17.3035 4.451895 34.267582 -3.020363
2011-09-09 07:42:19 51°24.433 2°44.214 17.306 4.453347 34.280776 -3.020363
2011-09-09 07:42:24 51°24.44 2°44.204 17.3028 4.449198 34.245701 -3.020363
2011-09-09 07:42:29 51°24.448 2°44.195 17.3036 4.443597 34.198121 -3.020363
2011-09-09 07:42:33 51°24.454 2°44.187 17.3046 4.444738 34.209984 -3.020363
2011-09-09 07:42:39 51°24.464 2°44.175 17.3028 4.444738 34.209984 -3.020363
2011-09-09 07:42:44 51°24.471 2°44.165 17.3049 4.451688 34.270549 -3.020363
2011-09-09 07:42:49 51°24.479 2°44.156 17.3033 4.446709 34.229 -3.020363
2011-09-09 07:42:53 51°24.485 2°44.148 17.3012 4.449302 34.251346 -3.020363
2011-09-09 07:42:59 51°24.494 2°44.136 17.3008 4.443182 34.198613 -3.020363
2011-09-09 07:43:04 51°24.502 2°44.126 17.2997 4.452621 34.279953 -3.020363
2011-09-09 07:43:09 51°24.509 2°44.115 17.2991 4.452621 34.279953 -3.020363
2011-09-09 07:43:13 51°24.515 2°44.107 17.2929 4.448783 34.246877 -3.020363
2011-09-09 07:43:18 51°24.523 2°44.097 17.2932 4.443804 34.203975 -3.020363
2011-09-09 07:43:24 51°24.532 2°44.085 17.2911 4.447227 34.234148 -3.020363
2011-09-09 07:43:29 51°24.54 2°44.074 17.2903 4.45065 34.265005 -3.020363
2011-09-09 07:43:33 51°24.546 2°44.067 17.2901 4.449302 34.252704 -3.020363
2011-09-09 07:43:39 51°24.555 2°44.054 17.2896 4.449302 34.252704 -3.020363
2011-09-09 07:43:44 51°24.562 2°44.044 17.2901 4.449717 34.254243 -3.020363
2011-09-09 07:43:49 51°24.57 2°44.034 17.2885 4.445464 34.216918 -3.020363
2011-09-09 07:43:54 51°24.577 2°44.023 17.2882 4.451273 34.267652 -3.020363
2011-09-09 07:43:59 51°24.584 2°44.013 17.2891 4.453451 34.287105 -3.020363
2011-09-09 07:44:04 51°24.592 2°44.002 17.2885 4.450028 34.258962 -3.020363
2011-09-09 07:44:09 51°24.599 2°43.991 17.2886 4.450028 34.258962 -3.020363
2011-09-09 07:44:13 51°24.605 2°43.983 17.2887 4.451065 34.268581 -3.020363
2011-09-09 07:44:19 51°24.614 2°43.97 17.2875 4.452829 34.284459 -3.020363
2011-09-09 07:44:24 51°24.621 2°43.959 17.2874 4.450754 34.267257 -3.020363
2011-09-09 07:44:29 51°24.628 2°43.949 17.2883 4.45148 34.274195 -3.020363
2011-09-09 07:44:33 51°24.634 2°43.94 17.2884 4.447331 34.239792 -3.020363
2011-09-09 07:44:39 51°24.642 2°43.927 17.2888 4.447331 34.239792 -3.020363
2011-09-09 07:44:44 51°24.65 2°43.917 17.2889 4.452414 34.282922 -3.020363
2011-09-09 07:44:49 51°24.657 2°43.907 17.291 4.451065 34.271978 -3.020363
2011-09-09 07:44:53 51°24.663 2°43.899 17.2899 4.445049 34.220126 -3.020363
2011-09-09 07:44:59 51°24.672 2°43.886 17.2897 4.449509 34.258567 -3.020363
2011-09-09 07:45:04 51°24.679 2°43.875 17.2885 4.448057 34.246729 -3.020363
2011-09-09 07:45:09 51°24.685 2°43.866 17.2892 4.448057 34.246729 -3.020363
2011-09-09 07:45:13 51°24.69 2°43.857 17.2888 4.456044 34.31558 -3.020363
2011-09-09 07:45:18 51°24.696 2°43.847 17.2905 4.456252 34.316688 -3.020363
2011-09-09 07:45:24 51°24.701 2°43.835 17.2881 4.455733 34.312216 -3.020363
2011-09-09 07:45:29 51°24.705 2°43.826 17.2888 4.453659 34.294332 -3.020363
2011-09-09 07:45:33 51°24.708 2°43.819 17.2883 4.457912 34.330997 -3.020363
2011-09-09 07:45:39 51°24.712 2°43.808 17.2881 4.457912 34.330997 -3.020363
2011-09-09 07:45:43 51°24.714 2°43.802 17.2874 4.456978 34.323629 -3.020363
2011-09-09 07:45:49 51°24.717 2°43.793 17.2867 4.457393 34.326525 -3.020363
2011-09-09 07:45:53 51°24.718 2°43.788 17.2872 4.455215 34.307745 -3.020363
2011-09-09 07:45:59 51°24.72 2°43.782 17.287 4.455526 34.310428 -3.020363
2011-09-09 07:46:04 51°24.721 2°43.778 17.2862 4.455111 34.307531 -3.020363
2011-09-09 07:46:09 51°24.722 2°43.775 17.2836 4.455111 34.307531 -3.020363
2011-09-09 07:46:13 51°24.722 2°43.773 17.2828 4.455733 34.312897 -3.020363
2011-09-09 07:46:19 51°24.722 2°43.772 17.2838 4.457185 34.326098 -3.020363
2011-09-09 07:46:24 51°24.721 2°43.772 17.2838 4.452518 34.286535 -3.020363
2011-09-09 07:46:29 51°24.72 2°43.772 17.2843 4.458326 34.336617 -3.020363
2011-09-09 07:46:34 51°24.719 2°43.772 17.2854 4.453451 34.294583 -3.020363
2011-09-09 07:46:39 51°24.718 2°43.771 17.285 4.453451 34.294583 -3.020363
2011-09-09 07:46:43 51°24.717 2°43.771 17.2837 4.456667 34.322306 -3.020363
2011-09-09 07:46:49 51°24.716 2°43.771 17.2836 4.4548 34.307569 -3.020363
2011-09-09 07:46:53 51°24.716 2°43.77 17.2838 4.453451 34.295943 -3.020363
2011-09-09 07:47:00 51°24.716 2°43.769 17.2829 4.45148 34.278952 -3.020363
2011-09-09 07:47:05 51°24.715 2°43.769 17.2828 4.452933 34.292151 -3.020363
2011-09-09 07:47:11 51°24.715 2°43.768 17.2838 4.452933 34.292151 -3.020363
2011-09-09 07:47:17 51°24.716 2°43.767 17.2828 4.453866 34.29952 -3.020363
2011-09-09 07:47:22 51°24.715 2°43.766 17.2822 4.454385 34.303992 -3.020363
2011-09-09 07:47:27 51°24.715 2°43.766 17.2826 4.449302 34.260854 -3.020363
2011-09-09 07:47:32 51°24.715 2°43.765 17.2828 4.455526 34.31451 -3.020363
2011-09-09 07:47:37 51°24.714 2°43.765 17.2825 4.452207 34.286571 -3.020363
2011-09-09 07:47:42 51°24.714 2°43.765 17.2825 4.452207 34.286571 -3.020363
2011-09-09 07:47:47 51°24.713 2°43.764 17.2839 4.453451 34.297303 -3.020363
2011-09-09 07:47:52 51°24.712 2°43.765 17.2817 4.454903 34.310504 -3.020363
2011-09-09 07:47:57 51°24.71 2°43.765 17.282 4.453348 34.297089 -3.020363
2011-09-09 07:48:02 51°24.708 2°43.766 17.2829 4.450858 34.275626 -3.020363
2011-09-09 07:48:07 51°24.707 2°43.766 17.2834 4.448991 34.25953 -3.020363
2011-09-09 07:48:12 51°24.704 2°43.766 17.2838 4.448991 34.25953 -3.020363
2011-09-09 07:48:17 51°24.702 2°43.767 17.2831 4.44951 34.26468 -3.020363
2011-09-09 07:48:22 51°24.699 2°43.767 17.2838 4.449095 34.261103 -3.020363
2011-09-09 07:48:27 51°24.696 2°43.767 17.2838 4.445983 34.234279 -3.020363
2011-09-09 07:48:32 51°24.693 2°43.767 17.2838 4.446294 34.236282 -3.020363
2011-09-09 07:48:37 51°24.69 2°43.767 17.2849 4.447539 34.247012 -3.020363
2011-09-09 07:48:42 51°24.688 2°43.767 17.2843 4.447539 34.247012 -3.020363
2011-09-09 07:48:47 51°24.685 2°43.767 17.2842 4.450547 34.272943 -3.020363
2011-09-09 07:48:52 51°24.683 2°43.767 17.2854 4.445153 34.226448 -3.020363
2011-09-09 07:48:57 51°24.68 2°43.767 17.2841 4.447746 34.2488 -3.020363
2011-09-09 07:49:02 51°24.678 2°43.767 17.2849 4.447746 34.2488 -3.020363
2011-09-09 07:49:07 51°24.675 2°43.767 17.2832 4.448161 34.251697 -3.020363
2011-09-09 07:49:12 51°24.673 2°43.767 17.2831 4.448161 34.251697 -3.020363
2011-09-09 07:49:17 51°24.67 2°43.766 17.2833 4.454903 34.309824 -3.020363
2011-09-09 07:49:21 51°24.669 2°43.766 17.2849 4.45563 34.316085 -3.020363
2011-09-09 07:49:26 51°24.666 2°43.766 17.2842 4.449821 34.266004 -3.020363
2011-09-09 07:49:31 51°24.664 2°43.766 17.2828 4.454281 34.304458 -3.020363
2011-09-09 07:49:36 51°24.662 2°43.766 17.2827 4.455215 34.312507 -3.020363
2011-09-09 07:49:41 51°24.66 2°43.766 17.2837 4.455215 34.312507 -3.020363
2011-09-09 07:49:45 51°24.658 2°43.766 17.2842 4.451688 34.2821 -3.020363
2011-09-09 07:49:50 51°24.657 2°43.765 17.2821 4.450858 34.275626 -3.020363
2011-09-09 07:49:55 51°24.655 2°43.766 17.281 4.452414 34.28836 -3.020363
2011-09-09 07:50:00 51°24.654 2°43.766 17.2831 4.455215 34.312507 -3.020363
2011-09-09 07:50:05 51°24.654 2°43.766 17.2827 4.45563 34.316085 -3.020363
2011-09-09 07:50:09 51°24.654 2°43.766 17.2837 4.45563 34.316085 -3.020363
2011-09-09 07:50:14 51°24.654 2°43.766 17.2833 4.456044 34.320343 -3.020363
2011-09-09 07:50:19 51°24.654 2°43.766 17.2838 4.454177 34.304243 -3.020363
2011-09-09 07:50:24 51°24.654 2°43.766 17.283 4.455526 34.315871 -3.020363
2011-09-09 07:50:29 51°24.656 2°43.766 17.2842 4.456459 34.32392 -3.020363
2011-09-09 07:50:33 51°24.657 2°43.765 17.2848 4.456978 34.329073 -3.020363
2011-09-09 07:50:39 51°24.658 2°43.764 17.2868 4.456978 34.329073 -3.020363
2011-09-09 07:50:44 51°24.66 2°43.762 17.2839 4.453348 34.297769 -3.020363
2011-09-09 07:50:49 51°24.661 2°43.761 17.2851 4.454281 34.305138 -3.020363
2011-09-09 07:50:53 51°24.663 2°43.759 17.2853 4.454385 34.306032 -3.020363
2011-09-09 07:50:59 51°24.664 2°43.757 17.2846 4.456044 34.320343 -3.020363
2011-09-09 07:51:04 51°24.665 2°43.754 17.2871 4.452207 34.287251 -3.020363
2011-09-09 07:51:09 51°24.667 2°43.752 17.2874 4.452207 34.287251 -3.020363
2011-09-09 07:51:13 51°24.668 2°43.75 17.2856 4.452207 34.287251 -3.020363
2011-09-09 07:51:19 51°24.669 2°43.747 17.2867 4.452207 34.287251 -3.020363
2011-09-09 07:51:24 51°24.671 2°43.744 17.2841 4.456356 34.323026 -3.020363
2011-09-09 07:51:29 51°24.672 2°43.741 17.2854 4.455526 34.31519 -3.020363
2011-09-09 07:51:33 51°24.673 2°43.738 17.2852 4.454903 34.309824 -3.020363
2011-09-09 07:51:39 51°24.674 2°43.735 17.2837 4.454903 34.309824 -3.020363
2011-09-09 07:51:44 51°24.675 2°43.733 17.2833 4.453866 34.3002 -3.020363
2011-09-09 07:51:49 51°24.676 2°43.73 17.2835 4.453555 34.297517 -3.020363
2011-09-09 07:51:53 51°24.676 2°43.728 17.2841 4.454489 34.305566 -3.020363